[{"header": {"dx": 0.06612293990616946, "dy": 0.0552356325346848, "nx": 98, "ny": 59, "la1": 35.046912555036876, "la2": 31.78801023549047, "lo1": -121.43107172385933, "lo2": -114.95102361305473, "refTime": "2026040715", "parameterCategory": 1, "parameterNumber": 2}, "data": [6.29, 6.29, 5.86, 5.89, 5.89, 5.48, 5.26, 5.09, 4.6, 4.5, 4.37, 3.79, 2.41, 1.74, 1.9, 1.2, -1.13, -3.58, -5.2, -6.23, -6.61, -6.71, -6.02, -5.59, -4.8, -4.22, -3.58, -4.4, -4.34, -5.36, -6.71, -5.81, -3.79, 0.0, 0.0, 3.16, 4.0, 4.92, 4.47, -0.0, 2.53, 4.47, 6.26, 6.9, 8.37, 10.66, 12.98, 13.51, 13.85, 10.75, -0.0, -0.0, 3.0, 4.22, 4.71, 5.36, 7.33, 8.63, 9.11, 9.11, 9.29, 8.94, 8.05, 7.15, 6.36, 6.64, 7.31, 8.24, 9.21, 11.02, 12.03, 11.62, 10.73, 10.28, 9.83, 9.79, 10.68, 11.62, 12.9, 12.27, 10.28, 6.4, 4.11, 4.47, 3.58, 3.13, 3.13, 2.68, 3.47, 5.34, 6.82, 6.95, 7.27, 6.7, 3.04, -8.85, -10.41, -5.94, 6.29, 5.86, 5.86, 5.64, 5.89, 5.48, 5.26, 4.8, 4.87, 4.4, 4.07, 3.33, 3.48, 2.84, 3.2, 2.8, 2.4, 0.0, -3.79, -5.21, -6.8, -7.21, -6.71, -6.14, -5.2, -4.22, -3.22, -3.2, -3.58, -4.02, -4.02, -3.58, -3.13, -3.13, 3.13, 3.58, 4.24, 3.48, 0.0, 4.47, 4.47, 5.94, 6.98, 7.48, 9.24, 12.01, 13.73, 13.28, 12.01, 5.81, -1.41, -0.0, 3.97, 4.56, 4.56, 6.01, 7.44, 8.15, 9.21, 9.54, 9.74, 8.94, 8.05, 6.79, 6.4, 7.21, 8.24, 8.73, 9.21, 10.14, 11.49, 11.58, 11.18, 10.28, 8.94, 8.94, 10.28, 11.62, 12.9, 12.27, 10.28, 6.4, 4.11, 4.47, 3.58, 3.13, 3.13, 2.68, 3.47, 5.34, 6.82, 6.95, 7.27, 6.7, 3.04, -8.85, -10.41, -5.94, 6.29, 5.86, 5.86, 5.64, 5.89, 5.89, 5.48, 5.05, 4.6, 4.66, 4.5, 4.14, 3.47, 3.48, 3.22, 3.6, 3.9, 2.97, 0.0, -3.79, -5.21, -6.8, -7.2, -7.5, -5.81, -4.57, -3.58, -2.84, -3.04, -3.95, -4.66, -4.66, -4.38, -3.58, -0.0, 3.58, 4.47, 4.98, 5.01, 4.43, 5.37, 6.42, 8.72, 10.46, 10.66, 11.78, 12.79, 11.45, -8.94, -2.8, -0.0, 2.4, 4.22, 4.56, 4.47, 5.69, 7.07, 8.15, 9.21, 9.6, 9.54, 8.41, 7.45, 7.47, 7.2, 7.37, 8.58, 9.85, 10.35, 10.84, 11.76, 12.48, 12.03, 10.52, 7.63, 7.21, 9.7, 12.96, 13.63, 11.5, 9.75, 8.05, 7.6, -4.43, -2.84, -2.8, 3.13, 2.8, 4.57, 7.35, 8.79, 8.22, 7.65, 6.76, 3.68, -7.59, -5.6, -3.16, 5.86, 5.86, 5.86, 5.86, 5.64, 5.89, 5.23, 4.8, 4.84, 4.4, 4.45, 4.5, 3.55, 3.22, 3.35, 3.84, 4.22, 4.0, 2.53, -0.99, -4.22, -5.2, -7.2, -8.0, -7.71, -6.26, -4.15, -2.84, -2.53, -2.97, -4.19, -5.43, -5.46, -4.8, 0.0, 4.0, 5.51, 7.06, 6.73, 6.83, 8.3, 10.19, 10.17, 9.71, 9.23, 9.37, 7.66, -8.49, -3.45, -0.0, 1.84, 2.26, 3.0, 3.68, 4.87, 6.01, 7.44, 8.15, 9.4, 9.75, 9.16, 7.81, 6.8, 6.32, 7.28, 7.96, 8.6, 8.82, 10.04, 11.02, 12.93, 14.58, 14.75, 11.72, 6.32, 5.37, 8.63, 11.96, 14.56, 8.05, 2.06, 2.6, 0.0, -4.11, -3.6, -3.2, 0.0, 3.35, 5.46, 8.79, 10.25, 8.75, 7.9, 7.59, 7.6, 4.47, 0.0, 0.0, 5.86, 5.86, 5.86, 5.86, 5.86, 5.64, 5.89, 5.48, 5.05, 5.1, 4.2, 4.5, 3.33, 3.47, 3.22, 3.47, 4.11, 3.93, 3.6, 0.0, -5.01, -6.23, -5.81, -7.63, -7.47, -7.63, -5.7, -4.02, -3.13, 0.0, -0.87, -3.33, -6.14, -5.06, -1.33, 1.39, 2.7, 6.5, 8.18, 8.86, 9.23, 9.25, 8.76, 8.6, 8.65, 8.3, 6.52, 2.4, 1.73, 3.2, 3.0, 3.0, 4.02, 4.75, 5.15, 6.87, 7.76, 8.15, 9.4, 9.85, 8.73, 6.45, 5.95, 5.69, 7.13, 8.34, 8.34, 7.51, 8.47, 9.76, 11.97, 14.6, 15.12, 15.2, 6.44, 2.83, 5.69, 8.21, 10.79, 0.0, -0.96, 0.0, 0.0, -4.29, -3.48, -2.0, 0.98, 5.69, 8.75, 10.47, 10.41, 8.73, 8.24, 4.11, 2.84, 2.8, 4.84, 4.96, 5.86, 5.86, 5.86, 5.86, 5.86, 5.86, 5.64, 5.23, 5.26, 4.84, 4.88, 4.24, 3.33, 3.63, 3.91, 3.47, 3.47, 3.63, 4.43, 1.03, -4.58, -7.41, -6.87, -7.2, -6.8, -5.93, -5.93, -3.76, -2.4, 0.0, 2.23, 2.23, -0.95, -2.6, -1.5, 0.0, 1.64, 6.36, 8.99, 8.16, 5.38, 4.54, 5.89, 8.95, 10.95, 11.79, 11.56, 10.73, 7.06, 5.01, 4.65, 4.43, 5.59, 4.47, 5.37, 6.7, 7.37, 7.37, 8.58, 10.35, 9.16, 5.75, 5.49, 6.11, 6.79, 8.34, 8.34, 6.87, 6.45, 8.55, 11.76, 13.15, 13.43, 14.3, 15.65, 5.15, 2.83, 2.68, 3.16, 0.0, -1.83, 0.0, 0.0, -2.09, -1.73, 0.0, 0.8, 6.16, 9.42, 9.48, 8.59, 10.19, 6.64, 0.0, 0.0, 3.58, 5.93, 6.95, 5.86, 5.86, 5.86, 5.86, 6.29, 5.86, 5.86, 5.64, 5.23, 4.8, 4.35, 3.93, 4.16, 4.11, 4.65, 3.35, 4.01, 4.29, 5.24, 5.37, 1.41, -2.95, -6.64, -7.13, -5.72, -4.66, -4.6, -3.45, -3.3, -2.51, 0.0, 3.58, 3.39, 0.82, 0.0, 0.0, 0.8, 4.65, 6.94, 5.51, 3.47, 2.28, 3.47, 7.19, 11.64, 10.37, 10.99, 10.18, 8.05, 7.15, 6.51, 5.37, 5.59, 5.95, 5.95, 6.16, 6.99, 7.12, 8.29, 9.68, 8.33, 5.75, 5.21, 5.58, 5.95, 7.28, 8.8, 8.22, 7.31, 8.89, 10.68, 11.57, 11.88, 14.23, 15.2, 13.02, 0.0, 0.0, 5.2, 7.87, 0.0, 0.84, 0.0, 0.0, 0.0, 0.71, 0.93, 1.66, 5.15, 7.78, 7.54, 7.54, 0.0, -3.35, 0.0, 4.11, 6.01, 5.86, 5.86, 5.86, 5.86, 5.86, 6.53, 6.29, 5.86, 5.64, 5.23, 4.76, 4.3, 3.87, 3.4, 3.72, 5.36, 4.43, 4.74, 5.77, 5.72, 5.58, 4.38, 4.22, 3.13, 0.0, -4.36, -3.61, -3.77, -4.54, -5.69, -5.21, -3.68, 0.0, 1.4, 2.83, 1.5, 0.74, 0.75, 2.34, 5.2, 4.4, 3.35, 3.61, 3.73, 4.24, 4.88, 4.46, 5.69, 6.44, 7.6, 7.94, 5.36, 5.94, 6.4, 6.21, 6.99, 7.12, 7.95, 8.29, 8.9, 8.9, 8.45, 6.2, 3.9, 3.79, 3.22, 6.13, 9.16, 8.94, 6.64, 7.1, 8.9, 10.24, 11.0, 11.71, 12.85, 12.39, 12.14, 11.71, 12.52, 13.75, 10.02, 3.47, 1.68, 1.43, 1.42, 1.5, 1.04, -3.14, -12.96, 0.0, 0.0, -3.79, -4.6, -3.58, 0.0, 4.01, 5.69, 4.71, 5.86, 5.86, 5.86, 5.62, 6.27, 6.27, 5.86, 5.86, 5.2, 5.44, 4.95, 3.87, 2.23, 2.71, 3.63, 4.68, 4.94, 5.69, 5.77, 5.6, 4.92, 5.64, 6.23, 4.47, 2.8, 0.0, -3.4, -5.72, -7.95, -5.45, -1.14, 0.0, 0.0, 1.38, 0.86, 0.79, 1.11, 1.33, 2.28, 0.0, 2.84, 2.53, 2.84, 0.0, -2.24, -3.58, 1.19, 3.68, 5.77, 6.99, 8.49, 6.79, 6.99, 6.99, 7.95, 8.48, 8.99, 10.08, 10.24, 9.35, 8.94, 6.71, 3.16, -0.0, -0.0, 6.4, 9.33, 8.94, 6.21, 6.02, 8.01, 9.28, 11.18, 11.37, 10.84, 9.83, 8.94, 10.28, 12.96, 15.2, 15.36, 3.93, 3.45, 3.15, 3.21, 3.51, 3.77, 11.18, -7.59, -9.54, -5.7, -4.66, -4.4, -2.84, 1.08, 4.43, 5.69, 4.46, 5.86, 5.86, 5.86, 5.83, 5.83, 6.27, 5.83, 5.62, 5.86, 5.4, 5.6, 5.8, 5.14, 3.35, 1.84, 2.93, 4.1, 4.1, 3.96, 3.32, 1.76, 2.49, 6.64, 7.2, 8.05, 7.6, 0.0, -4.4, -6.76, -3.68, 0.0, 0.0, 0.0, 0.0, 0.0, 0.0, 1.47, 0.0, -3.16, -0.0, 1.74, 2.4, 1.58, -1.2, -1.98, -0.85, -2.24, 0.0, 1.41, 5.6, 7.15, 7.21, 6.99, 7.53, 8.0, 8.99, 10.28, 10.96, 11.12, 10.28, 9.83, 7.15, -0.0, -1.98, -0.0, 7.01, 9.39, 9.39, 6.71, 6.07, 8.14, 10.32, 11.52, 11.28, 10.62, 9.26, 8.14, 8.56, 11.0, 13.81, 15.71, 11.7, 4.24, 4.75, 4.74, 5.49, 7.4, 8.49, 3.6, -4.11, -5.36, -4.0, -2.84, -0.87, 2.2, 3.79, 5.03, 3.68, 5.86, 5.86, 5.86, 5.83, 5.83, 6.27, 5.83, 5.83, 5.83, 5.83, 6.04, 6.45, 6.99, 5.86, 3.53, 3.56, 3.57, 4.18, 2.93, 2.4, 0.0, 0.0, 0.0, 6.4, 8.53, 7.6, 5.36, 5.36, 0.0, 0.0, 0.0, -2.2, -1.0, -0.0, 0.0, 0.0, 0.0, -3.48, -1.58, 1.0, 2.4, 2.24, 1.79, 1.79, -1.58, -1.9, -1.49, -2.21, -3.6, -4.0, 4.02, 5.36, 5.34, 6.21, 7.28, 8.72, 11.03, 12.07, 12.07, 11.12, 8.9, 7.97, 3.6, -2.4, 2.54, 8.06, 9.6, 9.34, 7.55, 6.7, 8.3, 9.86, 11.03, 10.32, 10.05, 10.37, 9.18, 8.05, 8.63, 11.39, 13.02, 13.58, 7.82, 7.78, 5.4, 5.16, 6.22, 6.26, 6.26, 4.92, 4.47, -1.8, 0.0, 1.41, 3.16, 4.29, 5.06, 1.19, 5.86, 5.86, 5.62, 5.83, 5.83, 6.27, 5.83, 5.83, 5.83, 6.04, 6.04, 6.94, 7.4, 7.73, 7.85, 6.5, 6.04, 4.9, 3.85, 2.19, 0.0, -7.9, -9.33, -10.28, -6.26, -2.24, -2.68, -1.58, -0.99, -2.21, -3.58, -1.0, -2.21, -1.9, -0.0, 3.58, -3.58, -2.68, -2.68, 3.13, 2.24, 1.79, 1.79, 2.68, -3.13, -2.68, -2.68, -3.13, -2.68, -1.9, 0.0, 2.21, 3.58, 4.0, 5.81, 8.38, 10.28, 12.07, 11.99, 9.4, 7.35, 7.94, -0.0, -2.4, 4.71, 7.44, 9.1, 11.03, 10.73, 9.63, 9.2, 9.9, 8.67, 8.3, 8.82, 10.01, 9.6, 8.67, 8.58, 10.01, 10.62, 10.24, 9.77, 6.6, 9.96, 6.88, 6.79, 6.85, 6.07, 4.87, 4.77, 4.4, 3.16, 3.16, 4.0, 6.71, 4.92, 0.0, 5.62, 5.62, 5.62, 5.83, 5.83, 6.27, 6.27, 6.27, 6.5, 6.5, 6.72, 6.72, 7.4, 8.38, 9.17, 9.12, 7.91, 6.92, 5.39, 4.4, 3.07, -9.83, -7.2, -4.98, -4.85, -4.41, -4.3, -4.93, -5.75, -6.28, -4.38, -3.39, -3.39, -2.8, -1.9, -2.8, -3.58, -3.58, -3.58, -4.02, -3.13, -2.68, -2.68, 3.13, 0.0, 0.0, -1.41, -2.6, -1.32, 0.0, 0.0, 0.0, 0.0, 1.01, 1.75, 3.49, 5.69, 10.08, 10.4, 4.46, 3.93, 6.71, -0.0, -0.0, 5.69, 3.72, 4.19, 8.82, 11.02, 11.62, 10.65, 9.77, 8.67, 7.53, 7.42, 9.6, 9.65, 8.03, 8.3, 8.3, 6.35, 6.79, 8.82, 8.73, 8.85, 11.5, 9.8, 6.25, 5.6, 5.64, 5.09, 3.9, 4.02, 4.24, 6.51, 6.26, -0.0, -2.53, 5.62, 5.62, 5.83, 5.83, 6.27, 6.27, 6.27, 6.5, 6.5, 6.25, 6.46, 6.9, 7.13, 8.49, 9.16, 9.48, 9.42, 8.59, 8.27, 7.9, 9.02, 10.35, 12.07, -11.62, -11.18, -10.28, -8.85, -6.07, -5.44, -5.94, -6.07, -3.95, -3.13, -2.68, -2.24, -2.68, -3.13, -3.13, -3.58, -4.02, -3.58, -3.58, 2.68, 0.0, 0.0, 1.2, 0.87, 0.0, 0.0, -1.09, -1.09, 0.0, 1.48, 0.0, 0.0, 0.0, 0.0, 3.6, 7.59, 0.0, -4.02, 0.0, 0.0, 0.0, 0.0, 0.0, 4.02, 5.81, 9.83, 8.05, 10.14, 10.62, 10.73, 9.21, 8.6, 9.58, 8.93, 6.18, 5.43, 5.46, 5.15, 6.39, 9.08, 10.02, 6.21, 10.3, 10.55, 8.55, 5.2, 5.59, 5.64, 4.93, 3.74, 5.2, 5.51, 4.47, -4.02, -1.6, 5.62, 5.83, 5.83, 5.83, 6.27, 6.27, 6.27, 6.5, 6.25, 6.46, 6.9, 7.13, 7.55, 8.49, 9.14, 9.8, 10.11, 9.84, 9.56, 9.56, 9.92, 11.2, 12.25, 9.8, 0.0, -12.3, -11.62, -8.82, -5.59, -4.66, -4.8, -4.87, -3.58, -2.24, -1.79, -2.24, -1.79, -2.24, -3.58, -3.6, -2.84, -2.53, 3.13, 2.24, -0.0, -0.0, 2.68, 2.24, 1.4, 0.0, 0.0, 0.0, 0.0, -3.13, 2.24, 3.58, 1.84, 2.69, 2.54, 1.79, -2.68, 0.0, 0.0, 0.0, 0.0, -1.14, 0.0, 0.0, 0.0, 4.47, 6.4, 10.28, 11.51, 10.05, 9.2, 8.72, 4.92, 3.58, 4.0, 4.8, 4.43, 5.58, 7.82, 9.96, 8.72, 6.21, 10.47, 8.94, 8.06, 7.06, 6.7, 6.0, 4.19, 4.0, 3.82, 0.0, -1.6, -1.6, 5.83, 5.83, 5.83, 6.27, 6.27, 6.27, 6.27, 6.5, 6.5, 6.9, 6.9, 7.13, 7.55, 8.49, 9.14, 9.8, 10.11, 10.44, 10.47, 10.18, 10.81, 11.16, 12.03, 12.56, 11.9, 11.53, 8.85, 11.62, -8.8, -6.8, -5.51, -3.82, -3.51, -2.68, 2.24, 1.79, 2.24, 3.13, -2.84, -4.8, -2.53, -1.58, -0.0, -0.0, -0.0, -0.0, -0.0, -0.0, -0.0, 1.79, 1.9, 3.13, -0.0, -0.0, -0.0, -0.0, 3.58, 3.79, 0.0, 1.34, 1.34, 1.34, 1.34, 1.58, 1.41, 0.0, -1.18, -2.84, -3.58, -3.58, 4.92, 9.54, 11.87, 11.4, 8.4, -1.8, -3.72, -5.51, -5.09, -5.81, 7.15, 6.8, 7.06, 7.12, 7.21, 5.29, 9.2, 9.33, 8.49, 7.45, 7.95, 3.79, 2.84, 4.22, 3.48, 0.0, 0.0, 0.0, 5.83, 5.83, 5.83, 6.27, 6.27, 6.27, 6.27, 6.5, 6.5, 6.9, 6.9, 7.55, 7.55, 8.49, 8.86, 9.8, 10.11, 10.43, 10.77, 10.47, 10.81, 11.37, 12.08, 12.87, 13.67, 14.55, 14.47, 14.19, 13.41, 12.07, -0.0, -7.2, -4.46, -2.8, -0.0, -0.0, -0.0, -0.0, -2.53, -1.8, -2.21, -1.58, -2.53, -1.2, -2.53, -2.53, -2.53, -0.0, -0.0, -0.0, -0.0, -1.6, -2.21, 3.13, 2.68, 3.13, 4.92, -0.0, -0.0, 3.58, -0.0, -0.0, 1.9, 2.21, 2.4, 2.68, 2.84, -3.16, -2.84, -2.21, 0.0, 6.2, 11.6, 11.62, -3.48, -2.98, -5.2, -6.51, -6.07, -5.94, -0.0, 7.6, 7.47, 7.4, 7.6, 5.09, 4.02, 4.02, 4.4, 6.99, 7.58, 3.79, 3.07, 4.11, 4.43, 1.8, 0.0, 0.0, 5.83, 5.83, 5.83, 6.27, 6.27, 6.27, 6.27, 6.5, 6.92, 6.9, 6.9, 7.55, 7.95, 8.49, 8.86, 9.8, 10.42, 10.42, 10.44, 11.09, 11.37, 12.25, 12.39, 12.8, 13.75, 15.09, 15.82, 15.3, 14.66, 13.96, 12.79, 11.18, -0.0, -3.47, -1.49, -0.98, -1.98, -3.2, -3.13, -2.68, -2.68, -2.68, -2.68, -2.24, -2.68, -3.13, -3.13, -2.21, -2.21, -2.21, -1.6, -2.84, -4.02, 4.02, 4.02, 4.02, 4.47, 5.36, -0.0, -0.0, -0.0, -0.0, 2.84, 2.53, -0.0, 0.85, 2.0, 1.8, 0.0, -5.0, -6.7, -8.22, -10.73, -5.36, -2.24, -2.98, -3.9, -5.36, -6.26, -5.81, 5.36, 5.21, 6.13, 7.13, 5.69, 4.81, 5.77, 4.38, 4.84, 6.18, 7.81, 4.89, 3.72, 4.02, 4.29, 1.83, 0.87, 0.87, 5.62, 5.83, 5.83, 6.27, 6.27, 6.27, 6.27, 6.5, 6.92, 7.16, 7.16, 7.55, 8.22, 8.22, 8.22, 8.84, 9.46, 10.11, 9.8, 10.68, 12.79, 13.85, 12.51, 10.6, 10.79, 14.31, 12.58, 12.9, 12.13, 11.37, 11.26, 9.66, 10.73, -4.0, -3.45, -2.86, -3.43, -4.73, -4.47, -4.47, -3.13, -3.13, -3.58, -3.13, -3.13, -2.68, -3.13, -2.53, -2.53, -2.53, -2.84, -3.16, -3.16, -0.0, -0.0, 5.81, 5.36, 5.81, 5.81, 5.36, -0.0, -0.0, -0.0, -0.0, -0.0, -0.0, 1.79, 3.58, 7.15, 0.0, -3.6, 5.69, 10.73, 10.28, 5.36, 2.24, -2.68, -4.02, -5.2, -2.6, 2.6, 5.37, 5.86, 6.14, 6.3, 5.36, 6.64, 6.01, 7.27, 6.01, 5.93, 5.21, 4.95, 3.69, 3.2, 2.47, 1.7, 1.7, 5.62, 5.62, 5.83, 6.27, 6.27, 6.27, 6.27, 6.92, 6.92, 6.92, 7.57, 7.57, 8.22, 8.22, 8.86, 9.17, 8.81, 7.87, 6.97, 7.9, 11.39, 13.28, 12.78, 10.25, 9.87, 11.69, 11.06, 10.1, 9.33, 8.83, 8.22, 6.7, 7.27, -8.94, -5.69, -5.58, -5.05, -5.64, -5.81, -4.92, -4.47, -4.47, -3.97, -4.02, -3.58, -4.02, -3.58, -2.53, -2.53, -2.53, -2.53, -2.84, -3.16, -3.48, -1.9, 4.02, 7.15, 4.92, 3.58, 4.47, 3.58, -0.0, -0.0, -0.0, -0.0, -0.0, 2.24, 2.97, 4.92, 5.51, 8.17, 12.08, 16.61, 18.73, 15.14, 8.79, 6.9, 0.0, -3.97, 0.0, 1.63, 4.46, 8.94, 8.49, 6.01, 5.06, 2.53, 2.54, 4.73, 3.58, 3.35, 6.01, 5.36, 3.27, 2.82, 3.09, 1.72, 1.72, 5.62, 5.62, 5.62, 6.53, 6.53, 6.53, 6.53, 6.92, 6.92, 6.92, 7.57, 7.57, 8.22, 8.22, 9.14, 9.44, 8.81, 7.87, 6.8, 8.45, 10.92, 11.7, 11.34, 11.03, 11.62, 11.06, 9.77, 6.8, 5.28, 5.1, 4.44, 3.8, 3.8, 0.0, -7.21, -6.23, -5.59, -5.77, -6.22, -6.26, -5.81, -5.77, -6.2, -6.17, -5.26, -4.92, -3.58, -3.2, -2.8, -2.21, -2.53, -2.84, -3.16, -3.16, -0.0, 3.58, 6.26, 6.26, 4.92, 2.68, 2.24, -2.21, -3.2, -2.53, -1.58, -2.21, 2.68, 2.68, 3.58, 6.52, 9.17, 11.97, 15.27, 16.5, 15.18, 11.35, 8.87, 5.8, -10.28, -6.32, -3.0, 0.0, -0.0, -3.97, -4.74, -3.6, -3.13, 3.58, 5.31, 5.16, 6.11, 6.48, 5.72, 2.64, 1.36, 1.45, 0.0, 0.0, 5.86, 5.86, 5.86, 6.53, 6.53, 6.53, 6.94, 7.19, 7.19, 6.92, 7.57, 7.57, 8.22, 8.22, 8.86, 9.44, 8.81, 8.53, 9.06, 10.59, 11.64, 10.7, 9.38, 9.73, 11.34, 12.09, 10.17, 7.19, 2.28, 1.4, 2.49, 2.32, 3.0, 0.0, -7.15, -6.71, -6.17, -4.87, -5.77, -6.21, -6.21, -6.2, -6.02, -5.94, -5.4, -4.34, -4.0, -3.2, -3.2, -2.8, -2.53, -2.84, -2.84, -3.16, -0.0, 5.81, 5.81, 7.6, 6.26, 2.24, 2.24, -1.2, -1.9, -1.58, -1.9, -2.21, -3.58, -0.0, -0.0, 1.41, 2.4, 7.68, 12.66, 15.87, 3.52, 6.2, 9.17, 10.3, -13.41, -10.28, -7.81, -6.36, -6.71, -5.6, -6.0, -4.92, -3.6, 0.87, 5.72, 8.67, 8.94, 7.27, 5.37, 2.2, 0.0, 0.0, 0.0, 0.0, 5.86, 5.86, 5.86, 6.53, 6.53, 6.53, 6.94, 6.94, 7.19, 7.59, 7.57, 7.57, 8.22, 8.59, 8.86, 9.16, 8.87, 9.17, 10.1, 11.36, 12.7, 11.77, 9.46, 8.83, 10.09, 11.44, 10.75, 9.48, 6.44, 2.97, 2.54, 1.63, 1.41, 1.3, 0.0, -5.81, -5.36, -4.85, -4.85, -5.75, -6.2, -5.94, -5.6, -5.6, -4.6, -3.93, -4.09, -3.6, -3.2, -2.8, -2.53, -2.53, -2.84, -3.16, -0.0, -0.0, -0.0, 4.92, 5.36, 0.0, 2.68, -1.0, -0.0, -0.0, -2.53, -0.0, -0.0, 2.24, 2.24, 1.79, 0.0, 1.4, -0.0, -2.69, -2.21, 1.09, 5.5, 7.82, 0.0, -12.39, -10.14, -8.05, -5.94, -5.09, -5.2, -3.48, -0.88, 1.73, 5.9, 7.82, 9.2, 5.64, 2.84, 3.58, -4.02, 0.0, 0.0, 0.0, 5.86, 5.86, 5.86, 5.86, 6.53, 6.53, 6.94, 6.94, 7.19, 7.59, 7.59, 8.23, 8.22, 8.59, 9.16, 8.87, 8.87, 9.44, 10.39, 11.38, 12.36, 12.35, 11.45, 9.8, 9.48, 10.12, 10.43, 10.3, 9.84, 8.53, 4.8, 4.0, 2.4, 1.63, 0.0, -2.8, -5.81, -5.36, -5.26, -5.26, -5.51, -5.6, -5.58, -5.21, -4.46, -4.09, -4.46, -3.16, -3.2, -3.6, -3.6, -2.84, -2.84, -2.84, -3.16, -0.0, -0.0, 2.24, 2.68, 4.02, 3.13, 2.24, 1.79, -0.0, -0.0, -0.0, -0.0, 5.36, 2.24, 1.26, 0.79, 0.0, -11.18, -2.16, -1.58, 0.0, 1.75, 3.96, 6.4, -6.4, -8.85, -9.13, -8.49, -6.7, -4.22, -2.66, 0.0, 1.75, 4.2, 3.55, 4.83, 0.0, -4.02, 4.02, -2.84, 0.0, 0.0, 0.0, 5.86, 5.86, 5.86, 5.86, 6.53, 6.53, 6.94, 6.94, 7.19, 7.59, 7.59, 8.23, 8.51, 8.87, 8.87, 8.87, 9.16, 9.8, 10.1, 11.05, 11.7, 12.03, 12.0, 11.45, 10.81, 10.51, 9.8, 9.8, 10.36, 9.48, 10.01, 7.9, 3.11, 2.17, 2.06, 0.0, -3.4, -7.15, -6.71, -6.07, -6.23, -5.75, -5.59, -5.58, -4.81, -4.46, -4.84, -4.6, -4.57, -4.57, -4.0, -4.4, -2.84, -2.53, -2.53, -0.0, -0.0, -0.0, 1.34, 1.9, 3.58, 2.24, -2.68, 3.13, -0.0, -0.0, -0.0, 4.47, 3.58, 2.53, 3.63, 2.82, 0.0, -9.2, -4.4, 7.15, 2.21, 1.8, 6.32, -0.0, -6.9, -7.82, -9.3, -9.2, -4.46, -1.49, 0.0, 1.0, 0.0, -3.35, -5.51, -8.05, 5.81, 3.48, 0.0, 0.0, 0.0, 0.0, 5.86, 5.86, 5.86, 5.86, 6.29, 6.53, 6.53, 6.94, 6.94, 7.59, 7.59, 8.23, 8.23, 8.51, 8.87, 8.87, 9.16, 9.8, 10.74, 10.74, 11.37, 11.69, 11.69, 12.08, 11.82, 10.84, 9.8, 9.17, 9.48, 9.17, 8.85, 8.53, 6.2, 3.25, 2.39, 2.17, 0.0, 0.0, -8.05, -7.6, -7.21, -6.8, -6.08, -5.93, -5.95, -5.58, -5.58, -5.37, -5.37, -4.98, -4.6, -3.93, -3.16, -1.8, -1.6, -1.6, -1.4, -0.0, 1.34, 2.24, 3.13, 3.58, 2.24, 2.68, -0.0, -0.0, -0.0, -0.0, -1.26, 0.99, 3.35, 5.06, 3.6, 0.0, 12.96, 12.52, 8.53, 4.02, 3.16, 8.94, -7.19, -7.36, -3.25, -10.73, -4.43, -2.73, 0.0, 0.0, -2.98, -3.83, -2.53, 0.0, 5.1, 4.74, 3.22, 0.0, 0.0, 0.0, 5.86, 5.86, 5.86, 5.86, 6.29, 6.53, 6.53, 6.94, 7.33, 7.59, 7.59, 8.23, 8.23, 8.51, 8.87, 8.87, 9.16, 9.8, 10.44, 10.74, 11.37, 11.37, 11.69, 11.73, 11.77, 11.54, 10.12, 9.06, 8.72, 8.37, 8.53, 8.22, 7.9, 7.9, 6.44, 4.6, 4.4, 5.46, 4.2, 8.94, 8.94, -8.49, -7.6, -6.44, -5.93, -5.93, -5.93, -5.72, -5.75, -5.37, -4.54, -3.48, -3.16, -2.23, -2.68, -1.8, -1.6, -0.0, -0.0, 1.34, 2.24, 0.0, 3.58, 2.24, 4.47, 2.24, 2.24, 1.34, -1.26, 0.0, 2.4, 4.74, 4.87, 4.6, 4.2, 11.18, 9.48, 3.39, 2.2, 6.71, -0.0, -3.47, -2.81, -0.0, -6.4, -3.72, -2.48, -2.53, -2.84, -3.35, -2.29, 0.0, 3.99, 4.21, 2.49, 1.55, 0.0, 0.0, 5.86, 5.86, 5.86, 5.86, 6.29, 6.29, 6.53, 7.22, 7.22, 7.87, 7.59, 7.96, 8.23, 8.23, 8.87, 8.87, 9.16, 9.8, 10.44, 10.44, 11.05, 11.05, 11.36, 11.39, 11.41, 11.14, 10.84, 9.8, 9.06, 8.42, 8.53, 8.22, 7.9, 7.59, 7.59, 7.27, 6.17, 5.46, 6.64, 6.64, 8.94, 8.94, 8.49, -6.01, -5.69, -5.69, -6.79, -6.08, -5.72, -5.24, -4.54, -3.79, -2.86, -2.86, -2.6, -2.68, -1.6, -0.0, -0.0, 1.34, 1.79, 0.0, 4.02, 2.68, 2.68, 4.92, 1.79, 1.34, 0.0, 0.0, 2.68, 4.81, 5.43, 3.97, 1.3, 0.0, 0.0, 0.0, 0.0, 4.47, -0.0, -4.24, -4.81, -3.68, -8.94, -5.37, -3.79, -4.6, -3.16, -2.53, -2.6, -0.82, 2.26, 2.99, 2.83, 2.49, 1.41, 1.41, 5.86, 5.86, 6.12, 6.12, 6.56, 6.56, 6.8, 7.22, 7.22, 7.6, 7.87, 8.24, 8.53, 8.23, 8.87, 8.87, 9.16, 9.8, 10.44, 10.44, 11.05, 11.05, 11.07, 11.07, 11.09, 10.78, 10.12, 9.8, 9.06, 8.72, 8.42, 8.53, 8.22, 7.9, 8.15, 7.27, 7.27, 6.95, 6.95, 6.95, 6.64, 8.94, 8.49, 7.6, -5.06, -4.22, -6.01, -6.44, -6.08, -4.74, -4.54, -4.12, -3.48, -3.48, -2.86, -2.48, -2.48, -1.6, -0.0, -0.0, -1.79, -2.68, -3.13, -1.79, 2.68, 2.68, 2.68, 1.34, -2.24, -1.26, 0.87, 4.84, 7.03, 6.79, 4.23, 0.0, -8.55, -3.97, 0.0, 4.02, 4.02, -10.8, -11.52, -10.65, -8.05, -5.36, -4.77, -4.6, -3.48, -2.2, -2.98, -1.23, 0.0, 1.49, 1.49, 1.95, 2.26, 2.26, 6.12, 6.12, 6.12, 6.12, 6.56, 6.56, 6.56, 7.22, 7.22, 7.6, 7.6, 8.24, 8.53, 8.87, 9.17, 8.87, 9.16, 9.8, 10.13, 10.43, 10.75, 11.05, 11.07, 11.09, 10.43, 10.46, 10.12, 9.8, 9.48, 9.17, 8.72, 8.85, 8.53, 8.22, 8.41, 8.15, 7.27, 7.27, 7.27, 6.95, 6.95, 6.64, 8.94, 8.05, -5.06, -3.4, -6.01, -5.06, -3.79, -2.95, -3.48, -3.48, -3.78, -3.48, -3.48, -3.15, -2.86, -2.23, -1.8, -2.6, -3.58, -2.68, -1.79, -2.24, 1.79, 2.24, 2.68, 1.79, 1.79, 0.0, 0.88, 3.47, 7.42, 9.77, 9.88, 8.66, -8.53, -7.07, -2.48, 0.0, 0.0, -8.8, -12.79, -13.07, -11.85, -6.0, -4.66, -4.02, -4.92, -6.71, -7.6, 0.0, 0.0, 0.0, 0.73, 1.67, 1.95, 1.95, 5.89, 5.89, 6.12, 6.12, 6.56, 6.56, 6.56, 6.96, 7.22, 7.6, 7.6, 7.96, 8.24, 8.87, 8.87, 9.17, 9.8, 9.8, 10.11, 10.43, 10.43, 10.74, 10.74, 10.76, 10.46, 10.12, 9.8, 9.48, 10.24, 9.89, 9.48, 9.48, 8.85, 8.53, 8.69, 8.41, 8.15, 7.9, 8.03, 8.23, 8.18, 8.8, 8.4, 8.49, -0.0, -5.69, -6.01, -4.74, -2.84, -1.98, -2.15, -2.23, -2.84, -3.78, -3.78, -3.48, -3.48, -3.79, -4.0, -4.8, -4.38, -3.58, -2.68, -1.79, 1.79, 1.26, 0.89, 0.0, 1.6, 3.79, 2.6, 1.72, 4.11, 10.28, 12.38, 13.03, 12.65, -10.73, -5.6, -1.55, 0.0, 0.0, -11.18, -13.28, -13.09, -10.79, -8.72, -5.34, -4.66, -3.22, -2.73, 4.92, 0.0, 0.0, 0.0, 0.71, 0.8, 0.8, 5.89, 5.89, 5.89, 6.12, 6.56, 6.56, 6.56, 6.96, 6.96, 7.6, 7.6, 7.96, 8.24, 8.87, 8.87, 9.17, 9.8, 9.8, 9.8, 10.12, 10.12, 10.74, 10.43, 10.76, 10.46, 9.8, 9.83, 8.79, 9.3, 9.23, 9.89, 9.48, 9.17, 8.97, 8.22, 8.35, 8.41, 8.15, 7.9, 8.03, 7.87, 8.8, 8.91, 8.94, 8.94, 9.39, -0.0, -5.69, -2.8, -2.2, -2.48, -2.15, -2.53, -2.79, -3.35, -3.88, -4.0, -4.37, -4.8, -5.44, -4.92, -3.58, -2.24, -0.0, -0.0, 1.2, 2.0, 1.4, 2.4, 2.8, 2.0, 1.08, 1.55, 6.13, 13.02, 12.82, 8.94, -10.4, -8.48, -6.95, 0.0, 2.2, 3.48, 10.73, -12.96, -13.31, -11.87, -9.6, -5.6, -4.54, -2.41, -1.4, -1.4, -0.7, 0.0, 0.0, 0.0, 0.0, 5.89, 5.89, 5.89, 5.89, 6.56, 6.56, 6.56, 6.96, 6.96, 7.33, 7.89, 8.24, 8.24, 8.54, 8.87, 9.17, 9.5, 9.8, 9.8, 10.12, 10.12, 10.12, 10.44, 10.12, 10.46, 10.15, 9.83, 9.48, 8.79, 9.17, 8.53, 8.53, 8.93, 8.53, 8.64, 8.73, 8.82, 8.58, 9.1, 8.93, 9.2, 8.43, 8.8, 9.11, 9.39, 9.39, 9.83, 6.32, -0.0, -0.0, -0.0, -1.7, -2.0, -2.41, -2.86, -3.07, -3.39, -4.11, -4.52, -4.87, -5.36, -2.68, -1.9, -0.0, -0.0, -0.0, 0.85, 2.24, 3.2, 2.53, 0.0, 0.0, 1.13, 4.29, 10.73, 10.01, 0.0, -2.53, -0.0, 7.21, 8.94, 9.64, 8.77, 7.6, 9.33, -11.62, -12.27, -11.09, -6.98, -5.06, -3.22, -1.4, -2.68, -1.49, -1.36, -0.8, 0.0, 0.0, 5.89, 5.89, 5.89, 6.16, 6.58, 6.84, 6.84, 7.24, 7.24, 7.61, 7.61, 8.24, 8.24, 8.54, 9.17, 9.17, 9.48, 9.8, 9.8, 9.8, 10.12, 10.44, 10.12, 10.13, 10.13, 10.15, 9.83, 10.15, 10.12, 9.48, 8.85, 8.22, 8.6, 9.0, 8.64, 8.73, 9.16, 8.47, 8.93, 8.72, 8.93, 9.04, 9.33, 9.13, 9.21, 9.83, 9.83, 9.39, 8.94, 6.01, -0.0, -0.0, -1.98, -1.84, -2.73, -3.72, -3.2, -3.04, -3.53, -3.53, -3.58, -1.9, -1.9, -1.8, -0.99, -1.2, -0.0, -0.0, 1.34, 1.34, -2.24, 0.0, 2.48, 6.18, 11.21, 9.44, -9.83, -0.0, 2.53, 6.23, 9.7, 11.18, 11.46, 11.46, 11.46, 12.35, 13.41, -9.48, -8.94, -6.32, -2.76, -2.41, -2.0, -0.99, -1.41, -1.4, -0.69, -0.69, 6.16, 6.16, 6.16, 6.16, 6.58, 6.58, 6.58, 7.24, 7.24, 7.61, 7.61, 7.89, 8.24, 8.24, 8.56, 8.87, 9.48, 9.48, 9.48, 9.8, 10.11, 10.11, 9.8, 10.13, 9.8, 9.83, 9.83, 10.15, 10.15, 9.89, 9.59, 8.97, 9.34, 9.0, 9.0, 9.04, 8.73, 8.79, 8.93, 8.99, 8.72, 8.8, 9.04, 9.46, 9.33, 9.64, 9.64, 9.39, 9.39, 8.94, 8.49, 5.69, -0.0, -0.0, -1.98, -4.11, -3.48, -3.82, -3.2, -2.4, -2.4, -3.2, -3.2, -3.6, -3.2, -2.21, -1.58, -2.24, 1.34, 1.79, -1.4, 0.0, 4.43, 9.16, 11.97, 11.99, 12.27, 10.12, 11.6, 12.39, 12.07, 11.91, 11.45, 11.87, 12.52, 13.86, 14.75, 9.17, -7.59, -5.36, -3.16, -2.68, -1.9, -1.2, -0.7, -1.4, -0.71, -0.71, 6.16, 6.16, 6.16, 6.16, 6.58, 6.58, 6.58, 6.97, 7.24, 7.61, 7.61, 7.61, 8.24, 8.54, 8.85, 9.17, 9.46, 9.78, 9.78, 9.78, 10.11, 9.8, 9.8, 9.8, 9.48, 10.13, 10.13, 10.13, 10.18, 9.9, 9.59, 9.69, 9.34, 9.0, 9.4, 9.04, 9.04, 8.79, 8.79, 8.55, 8.99, 8.99, 8.79, 9.21, 9.46, 9.89, 10.14, 9.64, 9.11, 9.39, 8.94, 8.49, 5.69, -0.0, -0.0, -0.0, -2.6, -2.4, -3.16, -2.21, -2.6, -2.68, -4.24, -3.2, -2.97, -3.58, -3.58, -1.58, -0.0, 1.34, 0.0, 0.0, 4.46, 9.42, 12.14, 11.84, 11.62, 12.88, 14.75, 15.27, 12.39, 10.4, 9.96, 9.6, 10.73, 10.38, 10.38, 8.91, -0.0, -4.46, -4.29, -2.95, -2.84, -3.13, -0.87, -0.76, -1.4, -1.4, 6.16, 6.16, 6.16, 6.16, 6.58, 6.58, 6.58, 6.97, 6.97, 7.61, 7.61, 7.9, 8.24, 8.54, 8.85, 8.85, 9.46, 9.46, 9.78, 9.78, 9.78, 9.48, 9.8, 9.48, 9.48, 9.8, 10.13, 10.13, 10.18, 9.9, 9.96, 9.62, 9.34, 9.76, 9.4, 9.4, 9.04, 9.43, 8.79, 9.2, 8.55, 8.6, 8.4, 8.48, 8.6, 9.46, 9.89, 9.75, 9.13, 9.11, 8.48, 8.49, 8.05, 5.37, -0.0, -0.0, -0.0, -0.0, -0.0, -0.0, -2.53, -2.98, -4.24, -3.47, -2.97, -3.13, -2.21, -1.6, -0.0, 1.34, 0.0, 0.0, 1.9, 8.05, 12.47, 11.76, 9.77, 11.2, 13.74, 12.7, 8.38, 6.95, 6.7, 7.63, 7.81, 6.9, 6.8, 4.4, 3.48, -5.36, -5.51, -3.79, -3.16, -4.47, -1.13, -0.73, -0.74, -1.36, 5.92, 5.92, 5.92, 5.92, 6.58, 6.58, 6.58, 6.97, 6.97, 7.61, 7.9, 8.24, 8.24, 8.24, 8.85, 8.85, 9.13, 9.46, 9.46, 9.46, 9.46, 9.48, 9.8, 9.48, 9.48, 9.8, 10.13, 10.13, 9.84, 9.9, 9.92, 9.62, 9.66, 9.3, 9.67, 9.67, 9.43, 9.43, 9.43, 9.2, 8.82, 8.6, 7.58, 7.6, 8.24, 9.63, 10.0, 9.32, 9.2, 9.13, 8.67, 8.06, 8.05, 7.6, 7.6, 5.06, -0.0, -0.0, -0.0, -0.0, -0.0, -3.2, -2.8, -2.97, -2.4, -3.13, -2.53, -1.9, 2.24, 1.79, 0.0, 0.0, 0.0, 6.02, 13.25, 12.3, 8.12, 9.3, 11.58, 11.7, 7.19, 4.2, 7.2, 6.71, 4.77, 4.15, 4.93, 5.09, 5.64, 5.36, -5.36, -4.8, -4.46, -5.2, -2.2, 0.0, -0.72, -0.74, 5.92, 5.92, 5.92, 6.2, 6.61, 6.61, 6.87, 7.26, 7.26, 7.61, 7.61, 7.93, 8.24, 8.24, 8.53, 8.53, 9.13, 9.13, 9.76, 9.76, 9.48, 9.48, 9.17, 9.17, 9.17, 9.48, 9.8, 9.5, 9.84, 9.84, 9.56, 9.57, 9.57, 9.3, 9.3, 9.3, 9.65, 9.43, 9.43, 9.05, 9.2, 8.82, 8.21, 7.2, 8.0, 10.18, 10.24, 9.09, 8.55, 8.05, 8.0, 7.6, 7.63, 7.6, 7.6, 7.15, 6.71, -0.0, -0.0, -0.0, -0.0, -2.84, -2.8, -1.9, -2.21, -3.13, -2.68, -2.68, -2.24, 1.79, 0.0, 0.0, 0.0, 4.74, 10.32, 12.01, 9.63, 6.73, 9.02, 10.09, 9.66, 9.33, 8.05, 6.14, 4.66, 5.75, 6.64, 6.64, 6.17, 6.26, 5.36, -5.36, -5.2, -6.79, -5.6, 0.0, 0.0, -0.72, 5.92, 5.92, 6.2, 6.2, 6.61, 6.61, 6.61, 6.98, 7.26, 7.26, 7.61, 7.61, 7.93, 8.24, 8.53, 8.53, 9.42, 9.42, 9.42, 9.42, 9.15, 9.15, 9.17, 9.17, 9.48, 9.48, 9.5, 9.5, 9.2, 9.2, 9.49, 9.49, 9.46, 9.21, 9.19, 9.52, 9.3, 9.65, 9.43, 9.05, 8.79, 8.82, 8.43, 7.81, 8.18, 10.09, 9.09, 7.21, 6.63, 6.63, 6.79, 7.6, 7.81, 7.21, 7.6, 7.15, 6.71, 5.81, 5.36, 3.48, -0.0, -3.16, -4.47, -3.58, -3.13, -3.13, -1.79, -3.13, -2.68, 1.34, 0.0, 0.0, 1.3, 2.8, 4.11, 8.77, 11.28, 9.6, 7.51, 6.98, 5.94, 4.34, 4.66, 6.88, 7.37, 7.54, 7.1, 7.15, 7.6, 7.15, 6.71, 0.0, -6.26, -8.05, -8.05, -3.2, 0.0, 0.0, 6.2, 6.2, 6.2, 6.2, 6.61, 6.61, 6.61, 6.98, 6.98, 7.32, 7.32, 7.61, 7.93, 8.24, 8.53, 8.82, 9.08, 9.42, 9.42, 9.42, 9.15, 9.15, 8.85, 8.85, 9.48, 9.8, 9.17, 9.17, 9.2, 9.2, 8.87, 9.49, 9.14, 9.09, 9.09, 9.19, 9.52, 9.14, 9.27, 9.27, 9.05, 8.42, 8.42, 8.42, 9.16, 10.35, 8.72, 6.7, 5.93, 5.59, 6.52, 6.44, 7.2, 7.81, 7.21, 7.6, 6.71, 6.26, 5.81, 5.36, -0.0, -0.0, -4.02, -4.02, -3.13, -3.13, -3.13, -2.68, 1.79, 1.79, 0.0, 0.0, 1.3, 2.6, 2.32, 4.02, 6.87, 7.59, 4.46, 1.8, 2.68, 3.6, 8.24, 10.04, 10.04, 9.33, 7.6, 7.15, 7.15, 7.15, 7.15, 6.4, 0.0, -7.2, -3.8, 0.0, 0.0, 0.0, 6.2, 6.2, 6.2, 6.2, 6.61, 6.61, 6.61, 6.98, 6.98, 7.32, 7.32, 7.61, 7.93, 7.93, 8.53, 8.82, 8.82, 9.08, 9.42, 9.15, 9.15, 8.82, 9.15, 9.15, 9.15, 9.17, 9.17, 9.17, 9.2, 8.87, 8.87, 8.87, 9.14, 8.79, 9.09, 9.09, 9.02, 9.02, 9.14, 8.93, 8.88, 8.67, 8.42, 8.42, 8.79, 9.58, 8.99, 7.76, 7.07, 6.28, 6.13, 6.13, 6.8, 6.8, 6.8, 7.21, 7.15, 6.71, 6.26, 5.81, 5.36, 5.36, -4.92, -4.47, -3.13, -3.13, -3.13, 2.68, 1.79, 1.34, 0.0, 0.87, 1.7, 3.0, 4.03, 4.74, 5.72, 4.4, 1.54, 3.8, 7.27, 10.79, 13.99, 13.59, 12.44, 10.66, 8.49, 6.71, 6.26, 6.71, 6.71, 6.94, 0.0, -4.0, 0.0, 0.0, 0.0, 0.0, 6.2, 6.2, 6.2, 5.95, 6.34, 6.61, 6.34, 6.7, 6.98, 7.32, 7.32, 7.61, 7.93, 7.93, 8.24, 8.82, 8.82, 9.08, 9.08, 9.15, 9.15, 8.82, 8.82, 8.82, 9.15, 9.17, 9.17, 8.85, 8.53, 8.87, 8.87, 8.54, 8.87, 8.53, 8.79, 9.09, 8.73, 9.02, 8.65, 8.76, 8.76, 8.55, 8.67, 8.67, 8.67, 8.42, 8.43, 8.21, 7.28, 7.07, 6.28, 6.52, 5.72, 5.72, 6.8, 7.21, 6.79, 6.36, 6.26, 6.26, 5.81, 5.36, 5.36, -4.47, -4.02, -3.13, -3.13, 1.34, 1.79, 1.34, 0.0, 0.99, 2.53, 3.33, 5.06, 4.98, 5.64, 7.89, 10.0, 10.37, 10.76, 14.82, 17.98, 16.46, 13.86, 11.18, 9.39, 8.49, 8.05, 6.64, 8.49, 4.43, 0.0, 0.0, 0.0, 0.0, 0.0, 0.0, 6.2, 6.2, 5.95, 5.95, 6.34, 6.34, 6.34, 6.7, 6.98, 6.98, 7.32, 7.32, 7.93, 7.93, 7.93, 8.82, 8.82, 9.08, 9.08, 9.08, 8.82, 8.82, 8.82, 8.82, 8.82, 8.53, 8.84, 8.84, 8.53, 8.53, 8.54, 8.54, 8.54, 8.53, 8.53, 8.19, 8.44, 8.73, 8.37, 8.45, 8.45, 8.55, 8.55, 8.55, 8.67, 8.42, 8.06, 7.81, 7.58, 7.58, 6.91, 6.7, 5.93, 5.72, 5.72, 5.95, 5.95, 6.79, 6.36, 5.6, 5.81, 5.81, 5.36, -4.92, -4.02, -3.58, -3.13, 1.34, 1.34, 0.89, 0.0, 1.0, 2.21, 3.58, 3.47, 2.54, 2.98, 7.6, 9.74, 8.24, 9.71, 15.72, 18.91, 16.99, 13.86, 11.18, 10.28, 10.28, 9.76, 9.39, 7.15, 4.66, 1.98, 0.0, 0.0, 1.49, 1.49, 1.49, 5.95, 5.95, 5.95, 5.95, 6.34, 6.34, 6.34, 6.7, 6.7, 6.98, 7.32, 7.32, 7.91, 7.93, 8.22, 8.5, 8.82, 8.82, 9.08, 8.82, 8.82, 8.82, 8.53, 8.82, 8.82, 8.53, 8.53, 8.84, 8.53, 8.22, 8.22, 8.54, 8.54, 8.21, 8.53, 8.53, 8.19, 8.19, 8.5, 8.15, 8.15, 8.45, 8.23, 8.18, 8.18, 7.95, 8.06, 7.41, 7.44, 7.15, 7.2, 6.55, 6.7, 5.93, 5.72, 6.4, 6.4, 5.95, 6.36, 6.0, 5.6, 5.2, 5.36, 4.92, -4.47, -4.02, -3.58, 3.13, 3.13, 1.34, 1.79, 0.0, 0.0, 2.24, 1.58, 1.0, 2.97, 6.17, 6.99, 6.01, 8.15, 14.28, 18.52, 17.88, 16.09, 12.96, 10.68, 9.79, 8.89, 5.29, 4.85, 4.82, 3.79, 1.52, 1.32, 2.12, 2.12, 2.12, 5.95, 5.95, 5.95, 5.95, 6.34, 6.34, 6.34, 6.7, 6.7, 6.98, 7.32, 7.6, 7.6, 8.22, 8.22, 8.22, 8.82, 8.82, 8.82, 8.82, 8.82, 8.53, 8.53, 8.82, 8.82, 8.53, 8.53, 8.53, 8.22, 8.22, 8.22, 8.22, 8.54, 8.21, 8.21, 8.53, 8.19, 8.19, 8.19, 8.15, 8.15, 8.15, 8.09, 8.09, 8.18, 8.18, 7.59, 7.69, 7.06, 7.06, 7.07, 6.79, 6.55, 6.32, 6.13, 6.13, 6.23, 6.0, 6.0, 5.21, 4.43, 5.2, 3.79, 4.92, 4.47, -4.47, -4.02, -2.53, -3.13, -1.34, 1.34, -1.79, -1.79, -1.79, 1.79, 1.79, 2.68, 3.9, 4.54, 5.49, 6.6, 11.13, 15.96, 17.68, 17.36, 13.79, 9.6, 6.07, 5.36, 5.36, 5.75, 5.09, 3.93, 2.8, 1.32, 2.26, 2.26, 2.26, 5.95, 5.95, 5.95, 5.95, 6.34, 6.34, 6.34, 6.7, 6.7, 6.98, 7.32, 7.32, 7.6, 8.22, 8.22, 8.22, 8.22, 8.82, 8.82, 8.82, 8.82, 8.53, 8.53, 8.53, 8.53, 8.53, 8.53, 8.22, 7.91, 8.22, 8.22, 8.22, 8.22, 8.21, 8.21, 8.21, 8.19, 8.19, 8.19, 8.15, 8.15, 7.9, 8.23, 8.09, 8.09, 8.18, 7.59, 7.59, 7.69, 7.32, 7.07, 7.07, 6.82, 6.55, 6.8, 6.4, 6.79, 6.23, 5.81, 5.6, 5.21, 4.11, 3.79, 0.0, 4.47, -4.02, -3.13, -3.13, -3.13, -2.24, -1.79, 1.79, -2.24, -2.24, -1.79, 1.79, 2.24, 2.0, 2.53, 4.22, 5.75, 7.81, 10.62, 13.7, 15.58, 13.53, 4.57, 4.24, 4.87, 5.77, 5.64, 5.2, 3.84, 2.6, 1.52, 1.32, 1.32, 1.32, 5.95, 5.95, 5.95, 5.95, 6.34, 6.34, 6.34, 6.34, 6.7, 6.98, 7.32, 7.32, 7.32, 7.93, 8.22, 8.22, 8.22, 8.5, 8.82, 8.82, 8.82, 8.53, 8.53, 8.53, 8.53, 8.53, 8.53, 8.22, 7.91, 7.91, 8.22, 8.22, 7.9, 8.21, 8.21, 7.88, 7.91, 8.19, 8.19, 8.15, 7.9, 7.9, 8.23, 7.87, 7.87, 7.81, 7.81, 7.59, 7.92, 7.32, 7.32, 7.07, 7.42, 6.8, 6.99, 6.99, 6.57, 6.4, 6.36, 5.94, 5.4, 4.84, 3.79, 3.79, 0.0, 0.0, -3.2, -2.97, -3.13, -2.68, -1.79, 1.79, 1.79, -1.79, -1.79, -1.79, 1.79, 1.79, 1.26, 3.13, 4.92, 5.29, 6.45, 10.04, 14.3, 8.94, 4.84, 2.53, 3.83, 5.16, 6.07, 5.82, 4.19, 2.4, 1.41, 0.0, 0.0, 0.0, 5.95, 5.95, 5.95, 5.95, 6.34, 6.34, 6.34, 6.34, 6.7, 6.98, 6.98, 7.32, 7.32, 7.61, 7.93, 7.93, 7.93, 8.22, 8.5, 8.82, 8.5, 8.22, 8.53, 8.53, 8.24, 8.53, 8.22, 7.91, 7.91, 7.91, 8.22, 7.9, 7.9, 7.9, 8.21, 7.59, 7.59, 7.91, 7.91, 7.58, 7.9, 7.9, 7.9, 7.87, 7.87, 7.51, 7.81, 7.59, 7.92, 7.32, 7.32, 7.07, 7.07, 6.82, 6.6, 6.6, 6.6, 6.57, 6.0, 6.0, 5.2, 4.98, 4.46, 2.4, 0.0, 0.0, -1.8, -2.21, -2.98, -2.6, -2.4, -1.34, 2.24, 2.24, -1.79, -2.68, -2.24, -2.24, 1.34, 1.79, 3.58, 4.47, 4.47, 8.05, 15.49, 11.6, 6.8, 1.6, 2.23, 3.16, 5.05, 6.6, 4.43, 1.19, 0.0, 0.0, 0.0, 0.0, 5.95, 5.95, 5.95, 5.95, 5.95, 6.34, 6.34, 6.34, 6.7, 6.98, 6.98, 7.32, 7.32, 7.61, 7.93, 7.93, 7.93, 7.93, 8.22, 8.22, 8.22, 8.22, 8.53, 8.24, 8.24, 8.24, 8.22, 7.91, 7.91, 7.91, 7.6, 7.9, 7.9, 7.9, 7.9, 7.59, 7.59, 7.59, 7.58, 7.58, 7.58, 7.9, 7.56, 7.56, 7.87, 7.51, 7.27, 7.59, 7.59, 7.69, 7.32, 7.44, 7.07, 6.82, 6.55, 6.18, 6.18, 6.21, 6.21, 5.58, 5.6, 5.2, 4.65, 4.11, 2.6, 0.0, 0.0, 0.0, -1.4, -2.8, -2.4, -2.4, 0.0, 1.9, 2.24, 2.24, -2.68, -2.68, -1.34, 0.0, 2.24, 3.13, 4.47, 14.4, 16.37, 13.88, 10.28, 4.92, 0.0, 0.98, 3.84, 6.21, 4.74, 0.0, -4.47, -3.16, -3.16, -3.16, 5.95, 5.95, 5.95, 5.95, 5.95, 6.34, 6.34, 6.34, 6.98, 6.98, 6.98, 7.32, 7.32, 7.61, 7.61, 7.93, 7.93, 7.93, 7.93, 8.22, 8.22, 8.22, 8.53, 8.24, 8.24, 7.93, 7.93, 7.91, 7.91, 7.91, 7.6, 7.6, 7.9, 7.9, 7.58, 7.28, 7.59, 7.59, 7.27, 7.58, 7.58, 7.58, 7.56, 7.56, 7.28, 7.27, 7.27, 6.65, 7.33, 7.33, 7.06, 7.06, 6.44, 6.11, 5.77, 5.77, 5.84, 5.84, 5.49, 5.58, 5.58, 5.21, 5.37, 5.01, 3.47, 1.98, 2.6, 3.22, 2.21, 2.68, 3.13, -3.58, -1.6, 0.0, 1.0, 0.0, -2.0, -2.6, 0.0, 0.0, 0.8, 2.4, 8.24, 13.53, 14.84, 13.44, 7.59, -3.97, -3.2, 0.0, 3.16, 5.95, 6.32, -5.36, -4.0, -4.47, -4.47, -4.47, 5.52, 5.52, 5.95, 5.95, 5.95, 6.34, 6.34, 6.34, 6.98, 6.98, 6.98, 7.32, 7.61, 7.61, 7.61, 7.93, 7.93, 7.93, 7.93, 8.22, 8.22, 8.22, 7.93, 7.93, 7.93, 7.93, 7.93, 7.61, 7.91, 7.6, 7.6, 7.6, 7.9, 7.9, 7.28, 7.28, 7.28, 7.59, 6.95, 6.95, 7.27, 7.27, 6.95, 6.95, 6.95, 6.95, 6.98, 6.65, 6.65, 7.02, 6.68, 6.68, 6.39, 5.69, 5.69, 5.37, 5.37, 5.37, 5.84, 5.49, 5.15, 5.58, 5.21, 4.89, 4.74, 4.02, 4.02, 3.49, 2.8, 2.68, 2.21, -0.0, 3.13, 0.0, 0.0, 0.0, -0.99, -1.83, 0.0, 0.0, 0.0, 0.99, 5.59, 10.84, 11.6, 5.0, -0.0, -3.79, -2.53, -4.02, 4.11, 7.47, 8.05, 6.26, -3.48, -3.48, -3.48, -3.48, 5.04, 5.04, 5.7, 5.95, 5.95, 5.95, 6.34, 6.34, 6.98, 6.98, 6.98, 6.98, 7.32, 7.61, 7.61, 7.61, 7.93, 7.93, 7.93, 8.22, 8.22, 8.22, 7.61, 7.61, 7.61, 7.61, 7.61, 7.61, 7.61, 7.6, 7.6, 7.6, 7.6, 7.9, 7.28, 7.28, 7.28, 7.28, 6.95, 6.95, 6.95, 7.27, 6.95, 6.95, 7.28, 6.95, 6.64, 6.98, 6.32, 6.64, 7.02, 6.32, 5.59, 6.01, 5.69, 5.24, 5.24, 5.37, 5.37, 5.06, 5.49, 5.49, 5.15, 5.58, 5.24, 4.74, 4.02, 4.02, 4.43, 3.6, 2.68, -0.0, 2.24, -1.4, 0.0, 0.0, 1.58, 0.0, 0.0, 0.0, 0.0, 1.66, 4.19, 7.6, 8.58, 0.0, -7.15, -2.48, -1.74, -1.8, 5.36, 7.15, 6.4, 6.71, -0.0, -0.0, -0.0, -0.0, 5.04, 5.04, 5.29, 5.7, 5.95, 5.95, 6.34, 6.34, 6.61, 6.98, 6.98, 6.98, 7.32, 7.61, 7.61, 7.61, 7.61, 7.93, 7.93, 8.22, 8.22, 8.22, 7.61, 7.61, 7.61, 7.61, 7.61, 7.61, 7.61, 7.6, 7.6, 7.6, 7.6, 7.27, 7.28, 7.28, 7.28, 7.28, 7.25, 6.95, 6.95, 6.95, 6.95, 6.95, 6.95, 6.95, 6.64, 6.28, 6.32, 6.64, 5.94, 6.32, 5.59, 5.59, 5.53, 5.24, 5.24, 4.68, 4.42, 4.87, 5.06, 5.06, 5.06, 5.49, 5.49, 5.06, 4.47, 5.06, 4.02, 3.16, 1.9, 2.24, 0.0, -2.21, -2.4, 0.0, 1.26, 0.87, 0.0, 0.0, 0.0, 0.82, 2.4, 5.24, 6.64, 0.0, -6.71, -0.0, -0.99, -0.99, -1.8, -0.0, 3.79, 5.06, -0.0, -0.0, -0.0, -0.0, 5.04, 5.04, 5.29, 5.7, 5.95, 5.69, 6.08, 6.08, 6.61, 6.98, 6.98, 6.98, 6.98, 7.32, 7.32, 7.61, 7.61, 7.61, 7.93, 7.93, 8.22, 7.91, 7.61, 7.61, 7.61, 7.61, 7.61, 7.61, 7.61, 7.32, 7.27, 7.27, 7.27, 6.98, 7.28, 7.28, 7.28, 7.28, 7.25, 6.95, 6.95, 6.58, 6.58, 6.95, 6.95, 6.62, 6.64, 6.28, 5.98, 6.32, 5.94, 5.49, 5.89, 5.59, 5.1, 4.83, 5.24, 4.68, 4.68, 4.42, 4.16, 4.58, 4.58, 4.58, 5.49, 5.06, 4.47, 4.47, 5.06, 2.98, 1.27, 0.0, 0.0, -1.9, -1.6, 0.0, 0.0, 1.2, 0.88, 0.0, 0.0, 0.0, 1.7, 3.45, 4.0, 0.0, 0.0, 6.71, -0.0, -0.0, -1.9, -2.8, 4.02, 5.36, -0.0, 3.13, 3.13, 3.13, 5.04, 5.04, 5.04, 5.45, 5.95, 5.69, 6.08, 6.34, 6.61, 6.61, 6.98, 6.98, 6.98, 6.98, 7.32, 7.32, 7.61, 7.61, 7.61, 7.61, 7.91, 7.91, 7.61, 7.61, 7.61, 7.61, 7.61, 7.26, 7.26, 6.98, 7.27, 7.27, 7.27, 7.27, 6.98, 7.28, 7.28, 7.28, 6.93, 7.25, 6.58, 6.58, 6.58, 6.3, 6.62, 6.62, 6.31, 6.28, 6.28, 5.86, 5.94, 5.49, 5.49, 5.36, 5.1, 5.1, 4.83, 4.26, 4.68, 4.42, 4.42, 4.42, 4.16, 4.58, 4.58, 4.58, 5.06, 4.75, 4.75, 4.47, 2.32, 0.0, 0.0, 2.68, 3.13, 0.0, 0.0, 0.0, 0.0, 0.0, 0.0, 0.0, 0.81, 2.49, 4.2, 0.0, 0.0, 8.4, 8.49, 5.69, -3.48, -3.13, -3.13, 3.13, 3.13, 3.58, 3.58, 3.58, 5.04, 5.04, 5.04, 5.45, 5.95, 5.95, 5.95, 6.34, 6.34, 6.61, 6.98, 6.98, 6.98, 6.98, 6.98, 7.32, 7.61, 7.61, 7.61, 7.61, 7.91, 7.91, 7.61, 7.61, 7.61, 7.61, 7.26, 7.26, 7.26, 6.98, 7.27, 7.27, 7.27, 7.27, 7.27, 7.28, 7.28, 6.93, 6.93, 6.93, 7.25, 6.58, 6.58, 6.3, 6.3, 6.62, 6.62, 5.94, 6.28, 5.86, 5.59, 5.49, 5.49, 4.96, 5.1, 5.1, 5.1, 4.26, 4.26, 4.26, 4.03, 4.03, 3.77, 3.77, 4.42, 4.87, 4.87, 4.22, 4.46, 4.75, 3.45, 1.13, 0.0, 4.02, -0.0, 3.13, -2.84, 0.0, 0.0, 0.0, 0.0, 0.0, 0.88, 2.49, 4.0, 3.53, 3.68, 7.59, 9.33, 9.83, 8.94, -6.26, -3.58, -3.13, -3.58, -4.92, -4.92, -4.92, 5.04, 5.04, 5.04, 5.29, 5.7, 5.95, 5.95, 6.34, 6.34, 6.34, 6.34, 6.98, 6.98, 6.98, 6.98, 6.98, 7.61, 7.61, 7.61, 7.61, 7.61, 7.61, 7.61, 7.61, 7.61, 7.61, 7.26, 7.26, 7.26, 6.98, 7.27, 7.27, 7.27, 7.27, 7.27, 7.58, 6.93, 6.93, 6.93, 6.93, 7.25, 6.58, 6.58, 6.58, 5.9, 6.23, 6.23, 5.94, 6.28, 5.86, 5.13, 5.49, 5.49, 4.96, 4.71, 4.71, 5.1, 4.5, 4.26, 4.26, 4.26, 3.4, 3.4, 3.77, 3.77, 4.42, 4.42, 4.68, 4.46, 4.22, 3.0, 1.99, 1.41, 4.02, 1.79, -2.24, -2.21, 0.0, 0.0, 0.0, 0.96, 0.88, 0.96, 2.49, 3.8, 5.7, 7.59, 9.2, 9.33, 9.39, 9.39, 7.6, 5.81, 4.92, 5.36, 6.26, 6.26, 6.26, 5.04, 5.04, 5.04, 5.29, 5.7, 5.95, 5.95, 6.34, 6.34, 6.34, 6.34, 6.98, 6.98, 6.98, 6.98, 6.98, 7.61, 7.61, 7.61, 7.61, 7.61, 7.61, 7.61, 7.61, 7.61, 7.61, 7.26, 7.26, 7.26, 6.98, 7.27, 7.27, 7.27, 7.27, 7.27, 7.58, 6.93, 6.93, 6.93, 6.93, 7.25, 6.58, 6.58, 6.58, 5.9, 6.23, 6.23, 5.94, 6.28, 5.86, 5.13, 5.49, 5.49, 4.96, 4.71, 4.71, 5.1, 4.5, 4.26, 4.26, 4.26, 3.4, 3.4, 3.77, 3.77, 4.42, 4.42, 4.68, 4.46, 4.22, 3.0, 1.99, 1.41, 4.02, 1.79, -2.24, -2.21, 0.0, 0.0, 0.0, 0.96, 0.88, 1.84, 2.26, 2.99, 4.0, 5.21, 6.95, 9.33, 9.83, 9.33, 8.4, 6.01, 7.6, 7.15, 7.6, 7.6, 7.6]}, {"header": {"dx": 0.06612293990616946, "dy": 0.0552356325346848, "nx": 98, "ny": 59, "la1": 35.046912555036876, "la2": 31.78801023549047, "lo1": -121.43107172385933, "lo2": -114.95102361305473, "refTime": "2026040715", "parameterCategory": 1, "parameterNumber": 3}, "data": [-10.3, -10.3, -10.55, -10.02, -10.02, -9.74, -9.86, -9.45, -9.2, -8.24, -7.28, -6.07, -3.22, -2.6, -1.9, -2.4, -3.39, -2.68, -2.6, -2.49, -1.1, -0.0, 1.72, 1.6, 2.4, 2.53, 2.68, 2.2, 1.08, -0.0, -0.0, -0.0, -3.79, -4.47, -4.47, -3.16, -2.0, 0.0, 0.0, 4.02, 2.53, 0.0, 0.0, -4.14, -5.98, -7.38, -9.52, -11.71, -12.0, -10.75, 5.36, 5.81, 6.0, 6.32, 7.07, 7.15, 5.86, 3.7, 2.28, 2.28, 1.33, 0.0, 0.0, 0.0, 2.12, 2.66, 2.09, 2.06, 1.84, 1.84, 1.0, 0.0, 0.0, 0.0, 0.0, 0.98, 0.97, 0.0, -1.29, -2.45, 0.0, 3.2, 4.11, 0.0, 0.0, 0.0, 0.0, 0.0, -0.87, -2.29, -4.26, -6.95, -8.49, -10.04, -12.14, -8.85, -2.6, -1.98, -10.3, -10.55, -10.55, -10.16, -10.02, -9.74, -9.86, -9.6, -9.05, -8.8, -7.46, -5.82, -3.48, -2.84, -1.6, -1.4, -1.2, -2.68, -3.79, -3.47, -3.4, -2.4, -0.0, 1.23, 2.6, 2.53, 2.41, 1.6, -0.0, -0.0, -0.0, -0.0, -0.0, -0.0, 0.0, 0.0, -1.41, -3.48, -4.92, 0.0, 0.0, -1.98, -5.59, -8.31, -10.92, -12.01, -12.81, -13.28, -12.01, 0.0, 5.64, 6.71, 5.95, 6.08, 6.08, 6.01, 4.96, 4.66, 3.45, 2.39, 1.39, 0.0, 0.0, 2.26, 3.2, 2.4, 2.06, 1.94, 1.84, 1.69, 1.77, 0.97, 0.0, 0.0, 0.0, 0.0, 0.0, 0.0, -1.29, -2.45, 0.0, 3.2, 4.11, 0.0, 0.0, 0.0, 0.0, 0.0, -0.87, -2.29, -4.26, -6.95, -8.49, -10.04, -12.14, -8.85, -2.6, -1.98, -10.3, -10.55, -10.55, -10.16, -10.02, -10.02, -9.74, -9.47, -9.2, -8.66, -7.72, -6.9, -5.21, -3.48, -2.41, -1.8, -0.98, -0.99, -3.58, -3.79, -3.47, -3.4, -3.6, -1.25, -0.0, 1.83, 2.68, 2.84, 0.76, -0.79, -1.55, -1.55, -0.88, -0.0, 2.68, 0.0, 0.0, -1.99, -3.76, -4.43, -5.37, -8.03, -11.34, -13.95, -15.99, -16.31, -15.53, -14.31, -0.0, 5.6, 7.15, 7.21, 6.32, 6.08, 5.59, 5.69, 4.71, 4.66, 3.45, 2.13, 2.39, 1.2, 1.49, 2.99, 3.6, 4.21, 3.81, 2.95, 2.82, 2.71, 2.71, 0.96, -1.0, -2.1, -2.54, -2.4, -1.62, 0.0, -2.48, -6.9, -3.25, 0.0, 0.0, -4.43, -2.84, -1.4, 0.0, -1.4, -1.83, -3.27, -6.15, -8.22, -8.75, -9.46, -11.03, -7.59, -2.8, -3.16, -10.55, -10.55, -10.55, -10.55, -10.16, -10.02, -9.88, -9.6, -9.07, -8.8, -8.27, -7.72, -6.21, -4.84, -4.19, -3.07, -2.53, -2.0, -2.53, -2.97, -2.53, -2.6, -3.6, -4.0, -2.31, -0.0, 1.66, 2.84, 2.53, -0.99, -3.35, -4.65, -3.9, -2.4, -3.58, -2.0, -1.84, -2.82, -5.89, -7.68, -9.96, -13.59, -15.25, -15.01, -14.26, -13.63, -13.13, -0.0, 5.75, 7.6, 7.37, 6.79, 6.0, 6.13, 5.84, 6.01, 4.96, 4.66, 4.18, 3.25, 2.04, 1.95, 3.4, 4.22, 5.2, 4.98, 4.78, 5.29, 5.86, 5.93, 4.97, 2.24, 0.0, -4.39, -6.32, -5.37, -4.71, -3.68, -4.37, -10.73, -8.24, -5.2, -7.15, -4.11, -1.8, -1.6, -3.58, -2.23, -3.9, -6.15, -7.18, -7.65, -7.9, -7.59, -3.8, 0.0, -4.47, -6.71, -10.55, -10.55, -10.55, -10.55, -10.55, -10.16, -10.02, -9.74, -9.47, -8.93, -8.4, -7.72, -5.82, -5.21, -4.84, -5.21, -4.11, -2.95, -1.8, -3.58, -3.76, -2.49, -2.32, -2.54, -2.99, -2.54, -1.14, -0.0, -0.0, -3.58, -3.47, -5.82, -7.68, -8.43, -9.29, -9.74, -9.46, -9.09, -10.63, -12.89, -14.26, -12.62, -9.56, -7.82, -7.08, -6.79, -5.44, 7.21, 6.94, 6.4, 6.0, 6.0, 5.36, 5.93, 6.18, 5.72, 4.44, 4.66, 4.18, 2.95, 1.94, 1.84, 3.97, 5.69, 6.11, 5.21, 5.21, 5.63, 6.59, 7.1, 6.98, 5.62, 5.5, 0.0, -10.73, -7.53, -5.69, -4.56, -4.32, -12.52, -4.82, -4.02, -5.81, -5.72, -3.48, -4.0, -3.9, -5.69, -7.65, -8.38, -6.94, -6.24, -6.87, -4.11, -2.84, -1.4, -3.22, -7.44, -10.55, -10.55, -10.55, -10.55, -10.55, -10.55, -10.16, -9.88, -9.35, -9.07, -8.54, -7.87, -5.82, -4.54, -4.89, -5.21, -5.21, -4.54, -4.43, -6.17, -5.49, -5.76, -5.72, -3.6, -3.4, -4.75, -4.75, -5.01, -4.8, -4.47, -3.35, -3.35, -6.64, -10.41, -11.98, -11.18, -11.51, -11.81, -12.26, -13.87, -12.29, -10.21, -6.73, -4.07, -3.91, -4.21, -3.47, 0.0, 2.82, 3.76, 3.49, 4.43, 4.47, 5.59, 5.37, 4.46, 4.21, 4.21, 3.81, 2.82, 2.04, 2.47, 4.58, 5.24, 5.82, 5.21, 5.21, 5.72, 5.53, 5.7, 4.28, 4.38, 6.1, 6.35, 0.0, -12.87, -8.48, -3.58, -3.16, -9.39, -4.57, -5.81, -6.26, -7.31, -6.94, -8.05, -8.01, -9.86, -10.77, -9.48, -7.15, -7.28, -6.64, -4.02, -2.68, -2.68, -4.75, -6.95, -10.55, -10.55, -10.55, -10.55, -10.3, -10.55, -10.55, -10.16, -9.88, -9.6, -9.32, -8.52, -5.82, -4.11, -3.49, -4.19, -4.81, -5.15, -6.11, -5.37, -4.24, -3.93, -6.64, -8.02, -8.0, -8.15, -9.2, -9.21, -8.79, -6.7, -4.02, 0.0, -1.13, -5.75, -10.28, -12.07, -12.04, -11.62, -10.41, -10.23, -11.56, -11.4, -11.56, -10.79, -9.06, -7.78, -5.99, -3.39, 0.0, 0.0, 1.63, 3.22, 4.47, 3.97, 3.97, 2.64, 2.99, 2.67, 1.84, 1.76, 1.67, 2.47, 3.47, 3.72, 3.97, 5.2, 4.4, 3.52, 2.09, 0.99, 0.97, 1.16, 2.16, 1.42, 0.0, -8.68, -13.86, -8.49, -2.6, -5.9, -7.6, -7.55, -8.49, -8.94, -10.28, -10.7, -12.03, -13.31, -12.87, -10.37, -9.42, -9.42, -5.36, -2.23, -3.13, -4.11, -6.01, -7.33, -10.55, -10.55, -10.55, -10.55, -10.68, -10.3, -10.55, -10.16, -9.88, -10.11, -9.83, -9.04, -6.8, -5.58, -4.02, -4.43, -4.74, -4.95, -5.0, -3.72, 0.88, 2.53, 0.0, -6.71, -9.8, -9.63, -10.05, -10.21, -9.1, -7.81, -6.13, -5.81, -7.01, -8.48, -9.72, -11.15, -12.05, -10.93, -10.4, -8.8, -7.81, -9.63, -12.42, -12.72, -8.54, -6.7, -5.69, -4.83, -3.8, -1.32, 0.0, 1.98, 3.2, 3.55, 2.99, 2.67, 2.98, 1.84, 0.89, 0.81, 0.85, 0.89, 0.98, 3.79, 4.84, 3.68, 2.04, 0.0, -0.95, -0.89, -0.89, -0.93, -2.0, -2.93, -3.85, -1.77, 3.04, 2.93, 0.0, -3.93, -12.02, -11.56, -9.24, -9.28, -10.63, -11.98, -12.47, -12.58, -0.0, -12.07, -11.18, -3.79, -2.76, -2.68, -4.02, -4.81, -5.69, -7.07, -10.55, -10.55, -10.55, -10.68, -10.83, -10.83, -10.55, -10.55, -10.4, -10.27, -10.52, -10.96, -10.04, -9.92, -8.17, -6.55, -6.91, -5.69, -4.95, -2.8, 0.0, 1.41, 2.49, 0.0, -5.6, -8.05, -6.8, -8.0, -9.08, -8.72, -10.22, -12.52, -13.86, -13.79, -12.04, -10.25, -11.12, -10.65, -9.11, -6.71, -2.84, -2.53, -2.84, -1.79, -0.0, -0.0, -4.77, -6.13, -4.95, -2.99, 0.0, 2.26, 2.99, 2.99, 2.98, 2.83, 2.7, 2.02, 0.93, 0.85, 0.0, 0.0, 3.16, 4.92, 5.36, 3.2, 1.04, 0.0, -0.78, -1.72, -0.8, -1.43, -3.19, -4.06, -2.71, 0.0, 0.0, 0.0, 0.0, 0.0, -6.14, -13.75, -9.21, -7.89, -8.82, -9.66, -10.05, 0.0, 7.59, 2.39, -1.14, -1.55, -2.2, -2.84, -4.34, -4.43, -5.69, -6.7, -10.55, -10.55, -10.55, -11.08, -11.08, -10.83, -11.08, -10.68, -10.55, -10.8, -11.2, -11.6, -10.92, -12.06, -11.93, -11.71, -12.3, -12.3, -11.87, -11.61, -10.58, -9.97, -6.64, -3.6, 0.0, 0.0, -7.6, -8.8, -9.46, -11.03, -12.52, -12.96, -12.07, -11.18, -11.18, -10.28, -8.82, -7.6, 3.16, 3.58, 2.6, 1.2, 1.58, 2.4, 2.98, 2.54, -0.0, -3.13, -4.24, -2.8, 0.0, 2.4, 2.99, 2.83, 4.0, 3.99, 3.08, 2.19, 1.11, 0.0, 0.0, 0.0, 8.05, 5.94, 6.71, 1.4, 0.0, 0.0, 0.0, -1.52, -2.44, -2.95, -3.6, -2.82, -1.52, -1.54, -2.44, -2.57, -2.0, -1.15, -3.49, -11.7, -12.72, -5.93, -4.74, -4.58, -3.17, 0.0, 7.2, 4.11, -0.0, -2.0, -2.84, -3.47, -4.4, -3.79, -6.28, -6.13, -10.55, -10.55, -10.55, -11.08, -11.08, -10.83, -11.08, -11.08, -11.08, -11.08, -11.47, -12.26, -11.44, -11.06, -10.6, -12.46, -13.39, -14.61, -15.37, -16.82, -17.43, -17.43, -16.54, -12.79, -8.53, 0.0, 0.0, 0.0, -8.49, -10.73, -10.73, -4.4, 2.0, 3.58, -6.26, -9.39, -9.39, 3.48, 1.58, 2.0, 1.2, 0.0, 0.0, 0.0, 1.58, 1.9, 2.23, 2.21, 1.8, 2.0, 0.0, 0.0, 2.29, 3.55, 5.2, 5.45, 3.68, 0.0, 0.0, -1.11, -0.89, -1.14, 7.2, 7.21, 7.63, 2.69, 2.13, 0.93, -0.84, -2.51, -3.32, -4.23, -3.68, -2.95, -2.15, -2.76, -3.53, -4.83, -4.71, -5.18, -5.92, -7.76, -13.03, -10.37, -2.16, -1.47, -0.69, 0.0, 0.0, 0.0, 0.0, -3.6, -4.47, -4.24, -3.16, -3.22, -5.06, -4.77, -10.55, -10.55, -10.68, -11.08, -11.08, -10.83, -11.08, -11.08, -11.08, -11.47, -11.47, -11.99, -11.72, -10.96, -9.16, -9.09, -9.4, -11.03, -12.85, -14.59, -13.41, -7.9, 3.11, -0.0, -0.0, -0.0, -0.0, 1.58, 2.97, 2.21, -0.0, 2.0, 2.21, 1.9, 2.68, 0.0, -0.0, -0.0, -0.0, 0.0, 0.0, 0.0, 0.0, 0.0, -0.0, -0.0, -0.0, -0.0, -0.0, -1.9, -3.13, -2.21, 0.0, 2.0, 2.32, 1.4, 0.0, 0.0, -3.6, -4.18, -3.27, -1.32, 8.49, 7.21, 7.07, 4.96, 5.69, 3.68, 0.0, -3.61, -4.6, -4.13, -3.61, -3.32, -3.21, -3.85, -4.8, -5.52, -6.44, -7.51, -7.43, -6.4, -7.82, -13.19, -3.98, -1.96, -2.26, -2.06, -1.52, -0.7, -1.19, -2.2, -3.16, -3.16, -2.0, 0.0, 0.0, -3.58, -10.68, -10.68, -10.68, -11.08, -11.08, -10.83, -10.83, -10.83, -11.22, -11.22, -11.61, -11.61, -11.72, -11.6, -9.78, -7.9, -7.25, -7.61, -8.76, -10.27, -10.75, -0.0, 3.6, 1.99, 0.81, 0.73, 1.23, 2.11, 2.47, 2.35, 0.88, 1.13, 1.13, 1.4, 1.9, 1.4, -0.0, -0.0, -0.0, -0.0, -0.0, -0.0, -0.0, 0.0, -2.68, -3.13, -4.24, -5.2, -6.58, -7.15, -6.71, -5.81, -5.36, -7.08, -8.77, -8.72, -5.69, -2.02, -5.2, -3.72, -2.95, 0.0, 7.6, 7.6, 5.69, 5.58, 5.24, 5.29, 1.84, 0.0, -1.33, -1.09, -2.17, -2.83, -4.12, -4.8, -5.63, -6.42, -6.79, -6.79, -5.64, -5.1, -6.86, -10.18, -8.85, -4.93, -4.36, -3.47, -2.8, -1.41, -1.7, -0.98, 0.0, -1.41, -1.63, 0.0, 4.02, -2.53, -10.68, -10.68, -11.08, -11.08, -10.83, -10.83, -10.83, -11.22, -11.22, -11.36, -11.75, -11.5, -11.88, -11.52, -10.99, -9.48, -7.54, -7.15, -7.52, -7.9, -8.02, -6.21, 0.0, -0.0, -0.0, -0.0, 1.26, 1.52, 2.04, 1.98, 1.52, 0.79, -0.0, -0.0, -0.0, -0.0, -0.0, -0.0, -0.0, -0.0, -0.0, -0.0, 0.0, -2.24, -3.13, -2.4, -3.47, -5.36, -8.05, -9.77, -9.77, -10.73, -13.33, -13.86, -12.52, -11.62, -9.39, -7.2, -7.59, -1.34, -0.0, -4.47, -5.81, -6.26, -4.92, -4.02, 0.0, 0.0, 0.0, 0.0, 1.69, 1.52, 0.0, -3.45, -4.78, -5.75, -5.95, -4.42, -4.65, -3.9, -4.29, -5.59, -7.26, -8.91, -10.87, -8.59, -7.54, -5.7, -2.6, -1.6, -1.41, -2.11, -1.49, -1.3, -1.84, 0.0, -0.0, -3.2, -10.68, -11.08, -11.08, -11.08, -10.83, -10.83, -10.83, -11.22, -11.36, -11.75, -11.5, -11.88, -11.62, -11.52, -11.58, -10.42, -9.48, -8.44, -8.09, -8.09, -7.63, -6.53, -5.45, -9.8, -13.41, -4.1, -0.0, 1.47, 1.6, 1.55, 1.07, 0.7, -0.0, -0.0, -0.0, -0.0, -0.0, -0.0, -0.0, 1.8, 2.84, 2.53, 0.0, 0.0, 3.13, 3.13, 0.0, 0.0, -2.8, -4.92, -8.05, -9.39, -7.6, -0.0, 0.0, 0.0, -5.51, -8.06, -7.63, 0.0, -0.0, -2.68, -3.58, -5.81, -6.71, -5.7, -5.81, -7.15, -2.68, 0.0, 3.2, 0.0, -1.64, -3.77, -4.6, -3.49, 0.0, 0.0, -2.0, -2.4, -4.43, -3.72, -4.34, -3.98, -5.45, -10.87, -8.38, -6.71, -2.69, -1.18, -2.51, -3.0, -3.35, -2.0, -1.27, -4.02, -3.2, -3.2, -11.08, -11.08, -11.08, -10.83, -10.83, -10.83, -10.83, -11.22, -11.22, -11.5, -11.5, -11.88, -11.62, -11.52, -11.58, -11.03, -10.74, -9.78, -9.08, -8.73, -7.93, -7.44, -6.88, -6.85, -7.93, -7.69, -8.85, 0.0, 4.4, 3.4, 1.84, 1.27, 0.7, -0.0, 0.0, 0.0, 0.0, 0.0, 2.84, 2.4, 2.53, 1.58, 2.68, 3.13, 3.58, 4.02, 4.02, 3.13, 2.24, 0.0, -1.9, 0.0, 2.24, 2.68, 3.13, 2.68, 0.0, -3.79, -3.13, 0.0, 0.0, 0.0, 0.0, -1.58, -4.24, -6.71, -7.06, -2.84, -0.0, -0.0, 0.0, -2.39, -3.96, -2.28, 4.2, 3.6, 2.48, 1.84, 1.7, -0.0, 0.0, -3.4, -2.82, -2.67, -2.4, -0.88, -4.6, -3.11, 0.0, -1.49, -2.98, -3.79, -2.84, -2.53, -3.48, -3.58, -3.58, -3.58, -11.08, -11.08, -11.08, -10.83, -10.83, -10.83, -10.83, -11.22, -11.22, -11.5, -11.5, -11.62, -11.62, -11.52, -11.23, -11.03, -10.74, -10.43, -9.42, -9.08, -7.93, -7.11, -6.79, -5.15, -4.21, -2.43, -2.89, -1.77, 0.0, 0.0, 10.28, 3.6, 2.98, 1.4, 2.24, 2.24, 3.13, 3.58, 2.53, 3.6, 2.21, 1.58, 2.53, 2.4, 2.53, 2.53, 2.53, 3.13, 3.13, 3.13, 3.58, 3.2, 2.21, 0.0, 0.0, 0.0, 0.0, 3.58, 3.58, 0.0, 3.58, 3.13, 1.9, 2.21, 1.2, 0.0, -2.84, -3.16, -2.84, -2.21, -8.49, -9.3, -5.8, 0.0, 3.48, 1.98, 2.6, 1.63, 1.52, 1.98, 6.71, 0.0, -2.99, -3.17, -3.8, -1.7, 0.0, 0.0, -2.2, -3.99, -4.74, -3.79, -3.84, -4.11, -4.43, -3.6, -3.58, -3.58, -11.08, -11.08, -11.08, -10.83, -10.83, -10.83, -10.83, -11.22, -10.96, -11.5, -11.5, -11.62, -11.35, -11.52, -11.23, -10.42, -11.07, -11.07, -9.78, -8.31, -7.11, -6.48, -6.2, -4.0, -1.72, -1.78, -2.97, -3.28, -4.0, -3.1, -2.13, 0.0, 8.94, 5.21, 3.74, 3.9, 2.98, 1.6, -0.0, -0.0, -0.0, -0.0, -0.0, -0.0, -0.0, -0.0, -0.0, 2.21, 2.21, 2.21, 3.2, 2.84, -0.0, 0.0, 0.0, 0.0, 0.0, 0.0, 5.81, 5.36, 4.92, 4.47, 2.84, 2.53, 4.47, 2.54, 1.0, -3.6, -9.83, -10.0, -10.04, -8.22, -0.0, -0.0, -0.0, 1.98, 0.98, -0.0, -0.0, -0.0, 0.0, -3.47, -3.68, -6.11, -5.69, -4.01, -4.95, -0.88, -3.22, -5.15, -5.21, -3.91, -4.46, -5.36, -5.15, -4.57, -3.47, -3.47, -10.68, -11.08, -11.08, -10.83, -10.83, -10.83, -10.83, -11.22, -10.96, -11.34, -11.34, -11.62, -11.16, -11.16, -11.16, -11.25, -10.73, -10.74, -9.15, -7.34, -6.4, -7.29, -7.82, -5.78, -4.32, -3.58, -5.81, -7.16, -7.58, -7.11, -6.43, -7.24, 0.0, 8.0, 5.75, 3.43, 2.86, 1.35, -0.0, -0.0, -0.0, -0.0, -0.0, -0.0, -0.0, -0.0, -0.0, 2.53, 2.53, 2.53, 2.84, 3.16, 3.16, 4.47, 5.36, 0.0, 0.0, 0.0, 0.0, 0.0, 4.47, 4.02, 4.02, 2.24, 4.47, 3.13, 0.0, -2.68, -5.36, -10.73, -7.2, -5.69, 0.0, 0.0, 0.0, 0.0, -0.0, -0.0, -2.6, -5.2, -5.2, -5.37, -7.33, -7.68, -7.56, -7.15, -6.64, -6.01, -7.27, -7.21, -4.75, -3.47, -5.77, -6.64, -6.4, -5.75, -5.09, -5.09, -10.68, -10.68, -11.08, -10.83, -10.83, -10.83, -10.83, -10.96, -10.96, -10.96, -11.07, -11.07, -11.16, -11.16, -11.23, -10.39, -10.7, -10.3, -9.3, -7.9, -7.89, -9.09, -9.78, -9.32, -10.96, -10.39, -11.06, -11.36, -12.0, -10.09, -8.22, -8.38, -7.27, -0.0, 5.69, 3.72, 2.88, 1.41, -0.0, -0.0, -0.0, -0.0, 0.66, -0.0, -0.0, -0.0, -0.0, 2.53, 2.53, 2.53, 2.53, 2.84, 3.16, 3.48, 1.9, 0.0, 0.0, 0.0, 0.0, 0.0, 0.0, 3.13, 2.68, 4.02, 3.13, 2.68, 0.0, -0.99, 0.0, 1.84, 2.33, 3.29, 3.56, 1.34, -1.38, -3.3, -4.14, -8.49, -5.95, -6.26, -6.51, -6.7, 0.0, 0.0, -6.01, -5.06, -2.53, -0.85, -3.38, -2.68, -4.19, -6.01, -7.15, -7.35, -7.06, -6.94, -6.02, -6.02, -10.68, -10.68, -10.68, -10.68, -10.68, -10.68, -10.68, -10.96, -10.96, -10.96, -11.07, -11.07, -11.16, -11.16, -11.58, -11.33, -10.7, -10.3, -10.51, -10.98, -11.83, -11.7, -12.04, -11.72, -12.39, -12.9, -12.22, -13.59, -12.33, -8.93, -7.76, -7.6, -7.6, -8.49, 2.4, 2.49, 1.6, 0.72, 0.69, -0.0, -0.0, 0.72, 0.89, 1.03, 1.05, -0.0, -0.0, 1.6, 1.4, 2.21, 2.53, 2.84, 3.16, 3.16, 5.36, 0.0, 0.0, 0.0, 0.0, 0.0, 0.0, 2.21, 1.6, 2.53, 1.58, 2.21, 0.0, 0.0, 2.68, 5.44, 7.14, 6.98, 5.09, 1.1, -3.79, -7.95, -10.65, -11.6, -0.0, -4.22, -6.0, -7.15, 8.05, 5.95, 4.74, 1.8, -0.0, 0.0, -0.76, -1.47, -5.24, -7.4, -8.0, -6.16, -6.11, -6.55, -5.36, -5.36, -10.55, -10.55, -10.55, -10.68, -10.68, -10.68, -10.41, -10.79, -10.79, -10.96, -11.07, -11.07, -11.16, -11.16, -11.23, -11.33, -10.7, -10.35, -11.64, -12.71, -12.37, -11.41, -11.39, -11.68, -12.04, -11.29, -11.3, -10.79, -9.11, -7.01, -6.23, -5.81, -6.0, -6.71, -0.0, -0.0, 1.03, 0.7, 0.72, 0.78, 0.78, 0.89, 1.72, 1.98, 2.16, 1.08, 2.0, 1.6, 1.6, 1.4, 2.53, 2.84, 2.84, 3.16, 4.92, 0.0, 0.0, 0.0, 0.0, 0.0, 0.0, 2.4, 1.9, 1.58, 1.9, 2.21, -0.0, 3.13, 3.13, 4.24, 4.8, 6.14, 5.63, 2.65, -8.22, -12.39, -13.76, -12.36, -0.0, -0.0, -1.95, -2.12, -0.0, 2.8, 3.0, -0.0, -1.8, -3.47, -5.0, -3.61, -6.71, -7.27, -5.37, -4.4, -4.47, -4.47, -4.92, -4.92, -10.55, -10.55, -10.55, -10.68, -10.68, -10.68, -10.41, -10.41, -10.79, -10.51, -11.07, -11.07, -11.16, -10.88, -11.23, -10.99, -10.65, -10.39, -11.36, -12.02, -11.29, -10.3, -10.13, -10.09, -10.76, -10.68, -10.75, -9.48, -8.58, -8.91, -7.63, -6.51, -5.64, -5.2, -5.36, -0.0, -0.0, 0.81, 0.81, 0.82, 0.89, 1.98, 2.8, 2.8, 2.76, 2.95, 2.73, 1.8, 1.6, 1.4, 2.53, 2.53, 2.84, 3.16, 4.92, 5.36, 4.47, 0.0, 0.0, -3.58, 0.0, 2.0, 2.24, 2.24, 2.53, 4.47, 3.58, 0.0, 0.0, 0.0, -2.24, -2.8, 13.86, 8.06, -2.21, -9.77, -13.2, -14.07, -15.65, 6.2, 1.69, -0.0, -1.98, -1.7, -2.6, -3.48, -4.38, -6.94, -8.42, -8.6, -8.49, -6.35, -2.84, 0.0, -0.0, -4.47, -4.92, -4.92, -10.55, -10.55, -10.55, -10.55, -10.68, -10.68, -10.41, -10.41, -10.79, -10.51, -10.51, -10.59, -11.16, -10.88, -10.99, -10.65, -10.65, -11.33, -11.69, -11.38, -10.99, -9.61, -9.3, -9.15, -9.48, -10.12, -10.43, -9.27, -8.44, -8.53, -9.6, -8.0, -7.21, -6.51, -6.26, -5.6, -0.0, -0.0, 1.05, 1.05, 1.84, 2.8, 3.72, 3.47, 3.72, 2.73, 2.98, 3.16, 1.6, 1.8, 1.8, 2.84, 2.84, 2.84, 3.16, 4.47, 2.24, 0.0, 0.0, 0.0, 0.0, 0.0, 0.0, 3.13, 4.47, 4.92, 4.02, 0.0, 0.0, -1.26, -3.95, -9.39, -0.0, 5.4, 1.58, -3.58, -8.77, -11.87, -12.79, 12.79, 8.85, 3.65, -0.0, -4.46, -6.32, -6.64, -7.15, -8.77, -8.4, -6.21, -6.44, -5.36, -0.0, 0.0, -2.84, -4.92, -5.81, -5.81, -10.55, -10.55, -10.55, -10.55, -10.68, -10.68, -10.41, -10.41, -10.79, -10.51, -10.51, -10.59, -10.94, -10.65, -10.65, -10.65, -10.99, -11.03, -11.36, -11.7, -11.05, -10.69, -9.33, -9.3, -10.04, -9.7, -9.8, -9.8, -9.21, -9.48, -7.51, -7.9, -9.33, -8.67, -8.24, -8.05, -6.8, -0.0, -0.0, 1.52, 2.49, 3.45, 4.47, 3.72, 4.01, 3.72, 3.22, 2.76, 1.83, 1.83, 2.0, 2.2, 2.84, 2.53, 2.53, 3.58, 3.58, 1.79, 0.0, -1.9, 0.0, 0.0, -0.0, 0.0, 4.47, 4.47, 4.02, 0.0, 0.0, -2.53, -4.54, -7.06, -10.73, 4.6, 8.8, 0.0, -2.21, -3.6, -6.32, 12.07, 11.5, 9.77, 6.2, -4.6, -6.7, -7.45, -8.05, -7.98, -4.92, -2.23, -1.84, -0.0, 0.0, -3.48, -4.02, -5.36, -5.81, -5.81, -10.55, -10.55, -10.55, -10.55, -10.3, -10.68, -10.68, -10.41, -10.41, -10.51, -10.51, -10.59, -10.59, -10.94, -10.65, -10.65, -10.99, -11.03, -11.37, -11.37, -10.74, -10.39, -10.39, -9.95, -10.25, -10.01, -9.8, -9.17, -9.48, -9.17, -8.85, -8.53, -9.3, -9.75, -9.54, -8.67, -8.49, -8.49, -0.0, -0.0, 2.4, 3.4, 4.56, 4.75, 3.97, 3.72, 3.72, 3.22, 3.22, 2.99, 2.76, 2.95, 3.16, 3.6, 3.2, 3.2, 2.8, 2.68, 0.0, 0.0, 0.0, 0.0, 0.0, 0.0, 2.68, 3.58, 4.02, 3.58, -1.26, -2.97, -4.19, -5.06, -7.2, -11.62, 0.0, 0.0, -8.53, -5.36, -3.16, 0.0, 10.79, 12.27, 13.01, -0.0, -4.43, -4.09, -6.26, -4.02, -1.98, -2.3, -4.22, -7.15, -6.79, -4.74, -4.84, -4.47, -4.92, -4.92, -10.55, -10.55, -10.55, -10.55, -10.3, -10.68, -10.68, -10.41, -10.15, -10.51, -10.51, -10.59, -10.59, -10.94, -10.65, -10.65, -10.99, -11.03, -11.05, -11.37, -10.74, -10.74, -10.39, -10.35, -10.3, -9.89, -10.12, -9.89, -9.59, -9.3, -8.53, -8.22, -7.9, -7.9, -8.58, -9.2, -8.8, -8.18, -8.4, 0.0, 0.0, -0.0, 3.8, 4.83, 4.75, 4.75, 4.75, 4.29, 3.45, 3.22, 3.63, 3.48, 3.16, 3.35, 3.58, 3.6, 3.2, 2.68, 1.79, 0.0, 0.0, -3.58, 0.0, 0.0, 0.0, 0.0, 0.0, 0.0, -1.26, -3.58, -4.8, -4.74, -5.84, -7.67, -8.4, 0.0, -9.48, -10.18, -4.4, 0.0, 10.73, 13.88, 14.03, 10.73, -3.2, -5.58, -3.72, -2.53, -2.84, -4.19, -5.34, -5.81, -6.99, -7.37, -6.23, -4.66, -4.92, -4.92, -10.55, -10.55, -10.55, -10.55, -10.3, -10.3, -10.68, -10.23, -10.23, -10.3, -10.51, -10.23, -10.59, -10.59, -10.65, -10.65, -10.99, -11.03, -11.05, -11.05, -10.44, -10.44, -10.1, -10.72, -10.7, -10.34, -10.01, -9.8, -9.89, -9.26, -8.53, -8.22, -7.9, -7.59, -7.59, -7.27, -8.23, -8.18, -6.64, -6.64, 0.0, 0.0, 0.0, 6.01, 5.69, 5.69, 5.1, 4.56, 4.29, 4.19, 3.63, 3.79, 3.43, 4.0, 3.64, 3.58, 3.2, 2.68, 1.34, 0.0, 0.0, -3.13, 0.0, 0.0, 0.0, 0.0, 0.0, 0.0, -1.34, -3.13, -3.58, -4.01, -4.65, -5.95, -5.2, -7.6, -10.28, -9.83, -4.92, 0.0, 8.05, 12.72, 14.42, 11.03, -0.0, -5.37, -3.79, -2.76, -3.16, -4.22, -5.2, -5.75, -6.79, -7.47, -7.53, -6.23, -5.64, -5.64, -10.55, -10.55, -10.4, -10.4, -10.13, -10.13, -10.51, -10.23, -10.23, -9.94, -10.3, -10.01, -10.35, -10.59, -10.65, -10.65, -10.99, -11.03, -11.05, -11.05, -10.44, -10.44, -10.42, -10.42, -10.4, -10.07, -10.12, -9.8, -9.89, -9.59, -9.26, -8.53, -8.22, -7.9, -6.98, -7.27, -7.27, -6.95, -6.95, -6.95, -6.64, 0.0, 0.0, 0.0, 5.06, 6.32, 6.01, 4.83, 4.56, 4.74, 3.63, 3.43, 3.48, 3.48, 4.0, 3.72, 3.72, 3.2, 2.24, 1.79, -0.0, -0.0, -0.0, -0.0, 0.0, 0.0, 0.0, 0.0, -0.0, -1.26, -3.47, -3.22, -3.91, -5.1, -9.86, -11.18, -5.7, -5.95, -4.92, 0.0, 0.0, 5.4, 9.22, 8.87, 4.83, -0.0, -1.19, -2.76, -3.48, -4.4, -4.46, -6.14, -6.71, -7.45, -7.45, -7.81, -6.79, -6.79, -10.4, -10.4, -10.4, -10.4, -10.13, -10.13, -10.13, -10.23, -10.23, -9.94, -9.94, -10.01, -10.35, -10.06, -10.39, -10.65, -10.99, -11.03, -10.72, -10.43, -10.75, -10.44, -10.42, -10.4, -10.43, -9.76, -10.12, -9.8, -9.48, -9.17, -9.59, -8.85, -8.53, -8.22, -7.36, -6.98, -7.27, -7.27, -7.27, -6.95, -6.95, -6.64, 0.0, 0.0, 5.06, 6.8, 6.01, 5.06, 3.79, 3.93, 3.48, 3.48, 3.15, 3.48, 3.48, 3.78, 3.43, 3.35, 3.6, 1.74, -0.0, -0.0, -0.0, -0.0, 0.0, 0.0, 0.0, 0.0, 0.0, -2.24, -4.38, -5.21, -4.12, -4.44, -7.68, -10.82, -8.53, -4.71, -3.72, -3.58, -3.58, -4.4, 2.13, 5.81, 5.27, 3.0, 1.55, -0.0, -0.0, -0.0, -0.0, -8.05, -8.49, -7.6, -8.01, -8.33, -7.81, -7.81, -10.02, -10.02, -10.4, -10.4, -10.13, -10.13, -10.13, -9.86, -10.23, -9.94, -9.94, -9.66, -10.01, -10.06, -10.06, -10.39, -10.42, -10.42, -10.74, -10.43, -10.43, -10.11, -10.11, -10.09, -9.76, -10.12, -9.8, -9.48, -8.66, -9.06, -9.48, -9.48, -8.85, -8.53, -7.72, -7.36, -6.98, -6.58, -6.42, -6.17, -5.46, -4.4, -4.2, 0.0, 7.6, 5.69, 6.01, 4.74, 2.84, 2.98, 2.86, 2.79, 2.84, 3.15, 3.15, 3.48, 3.48, 3.79, 2.86, 2.4, 0.88, -0.0, -0.0, -0.0, 0.0, 1.26, 0.0, -3.13, -3.2, -3.79, -5.2, -6.02, -4.11, -3.08, -5.16, -7.82, -7.59, -0.0, -2.8, -4.66, -4.02, -5.36, -0.0, 1.9, 2.91, 4.32, 3.49, 2.29, 1.55, 2.41, 4.09, 0.0, -6.26, -7.6, -8.49, -8.46, -8.01, -8.01, -10.02, -10.02, -10.02, -10.4, -10.13, -10.13, -10.13, -9.86, -9.86, -9.94, -9.94, -9.66, -10.01, -10.06, -10.06, -10.39, -10.42, -10.42, -10.42, -10.12, -10.12, -10.11, -10.43, -10.09, -9.76, -9.8, -9.13, -9.53, -8.37, -8.46, -9.06, -9.48, -9.17, -8.07, -8.22, -7.42, -7.36, -6.98, -6.58, -6.42, -5.9, -4.4, -2.97, 0.0, 0.0, 0.0, 9.39, 5.69, 5.6, 4.4, 3.72, 2.86, 2.53, 2.23, 2.23, 2.22, 2.86, 3.12, 2.4, 2.04, -0.0, -0.0, -0.0, 1.79, 2.24, 2.4, 1.0, -2.8, -4.8, -5.6, -4.0, -4.34, -4.66, -3.68, -4.74, -8.16, -11.17, 5.2, 2.83, -6.95, -7.6, -4.4, -3.48, 0.0, -0.0, 1.66, 3.96, 4.8, 2.8, 3.63, 3.22, 2.8, -2.8, -4.87, -8.05, -8.49, -8.05, -8.05, -10.02, -10.02, -10.02, -10.02, -10.13, -10.13, -10.13, -9.86, -9.86, -9.59, -9.71, -9.42, -9.42, -9.76, -10.06, -10.39, -10.09, -9.8, -9.8, -10.12, -10.12, -10.12, -9.78, -10.12, -9.76, -9.43, -9.13, -9.48, -9.53, -9.17, -8.53, -8.53, -8.12, -8.53, -7.78, -6.98, -6.86, -6.44, -5.69, -5.1, -4.6, -5.06, -4.4, -2.28, 0.0, 0.0, 0.0, 6.32, 8.05, 7.15, 6.26, 5.09, 4.0, 3.22, 2.15, 1.84, 1.13, 1.76, 1.94, 0.7, -0.0, -0.0, 1.9, 2.24, 2.68, 3.13, 2.54, 0.0, -1.6, -2.53, -2.24, -2.68, -3.39, -5.15, -6.44, -11.44, -9.39, 2.53, 4.47, 2.4, 0.0, -1.93, -1.75, 0.0, -3.11, -0.0, 2.45, 4.75, 5.59, 5.06, 4.29, 2.8, -0.0, -3.74, -6.11, -8.01, -7.6, -7.6, -10.02, -10.02, -10.02, -9.86, -9.58, -9.95, -9.95, -9.66, -9.66, -9.37, -9.37, -9.42, -9.42, -9.76, -9.78, -9.78, -9.48, -9.8, -9.8, -9.8, -10.12, -9.78, -10.12, -9.46, -9.46, -9.43, -9.13, -9.43, -10.12, -9.48, -8.85, -8.22, -7.82, -7.36, -7.78, -6.98, -6.41, -6.59, -5.95, -5.45, -5.1, -3.87, -3.11, -3.65, -1.84, 0.0, 0.0, 0.0, 0.0, 6.01, 7.6, 6.71, 5.94, 5.51, 4.09, 2.48, 1.6, 0.76, 0.59, 0.59, -0.0, 1.9, 1.9, 3.6, 2.97, 2.4, 3.13, 2.24, 0.0, 0.0, -0.0, -2.68, -3.72, -7.06, -8.15, -11.33, -0.0, 3.13, 2.53, 2.49, 1.62, 0.0, -1.91, -1.91, -1.91, -2.06, 0.0, 9.48, 6.71, 6.32, 4.6, 3.22, 1.0, -2.97, -5.64, -7.01, -7.57, -7.57, -9.86, -9.86, -9.86, -9.86, -9.58, -9.58, -9.58, -9.66, -9.66, -9.37, -9.37, -9.71, -9.42, -9.42, -9.13, -9.46, -9.48, -9.48, -9.48, -9.8, -9.48, -9.48, -9.8, -9.46, -9.8, -9.13, -9.13, -9.43, -9.43, -9.06, -8.72, -8.07, -7.64, -7.36, -7.36, -6.57, -6.98, -6.15, -5.95, -4.99, -5.45, -4.4, -3.87, -2.7, -3.11, -1.93, -1.93, 0.0, 0.0, 0.0, 0.0, 5.69, 7.6, 7.15, 5.94, 4.11, 3.48, 1.27, 1.6, 1.2, 1.2, 1.6, 1.6, 1.8, 1.6, 2.21, 1.58, -0.0, 0.0, 0.0, -2.8, -3.58, -4.43, -6.41, -6.98, -6.0, 2.45, 8.1, 5.8, 1.77, 0.0, -1.98, -3.82, -3.96, 0.0, 0.0, 0.0, 9.17, 7.59, 4.02, 3.16, 3.58, 1.9, -2.4, -4.87, -7.01, -8.46, -8.46, -9.86, -9.86, -9.86, -9.86, -9.58, -9.58, -9.58, -9.3, -9.66, -9.37, -9.37, -9.37, -9.42, -9.15, -8.85, -9.17, -8.87, -9.17, -9.17, -9.17, -9.48, -9.8, -9.8, -9.8, -9.48, -8.78, -8.78, -8.78, -8.73, -8.37, -8.72, -7.93, -7.64, -7.36, -6.84, -6.57, -6.57, -6.15, -6.15, -5.7, -4.99, -3.99, -3.3, -3.45, -2.7, -2.82, -1.69, -1.93, -2.28, 0.0, 0.0, 0.0, 5.69, 7.6, 7.15, 6.71, 5.2, 4.8, 3.16, 2.21, 1.74, 1.61, 1.41, 1.6, 0.99, -0.0, -0.0, 1.58, 1.79, 0.0, -2.68, -3.58, -2.98, -2.83, -3.04, -2.37, 0.0, 1.43, 0.0, -3.39, -6.2, -5.2, -3.98, -4.8, 0.0, 4.15, 4.15, 2.97, 5.36, 2.98, 3.22, 3.93, 2.84, -0.0, -3.47, -5.31, -8.38, -8.38, -9.86, -9.86, -9.86, -9.86, -9.58, -9.58, -9.58, -9.3, -9.3, -9.37, -9.37, -9.12, -8.82, -9.15, -8.85, -8.85, -8.87, -8.87, -9.17, -9.17, -9.17, -9.48, -9.15, -9.48, -9.48, -9.15, -8.78, -8.78, -8.73, -8.37, -8.3, -8.01, -7.64, -7.1, -6.84, -6.84, -6.57, -6.0, -6.15, -5.52, -5.7, -4.78, -4.2, -2.83, -2.46, -2.7, -2.82, -3.25, -3.65, -2.28, -2.83, 0.0, 0.0, 5.37, 7.6, 7.15, 6.26, 5.81, 4.02, 3.58, 2.53, 1.98, 1.41, 0.87, 0.99, -0.0, 2.21, 3.2, 2.68, 0.0, -1.79, -2.68, -1.9, 0.0, -1.04, -4.28, -5.43, -5.6, -7.49, -9.88, -10.47, -6.95, -4.46, -2.54, 1.95, 4.14, 3.4, 2.2, 3.48, -0.0, 1.84, 3.79, 3.16, -0.0, -3.39, -4.41, -6.66, -7.48, -9.48, -9.48, -9.48, -9.48, -9.58, -9.58, -9.58, -9.3, -9.3, -8.78, -9.12, -8.82, -8.82, -8.82, -8.85, -8.85, -8.56, -8.87, -8.87, -8.87, -8.87, -8.85, -9.15, -9.48, -9.48, -9.15, -8.78, -8.78, -8.44, -8.37, -7.63, -8.01, -7.24, -6.97, -6.45, -6.45, -6.0, -6.0, -6.0, -5.52, -5.29, -4.78, -4.74, -3.8, -2.06, -3.61, -5.0, -5.32, -4.6, -3.65, -2.17, -2.69, 0.0, 0.0, 0.0, 5.06, 6.71, 5.81, 4.47, 4.02, 4.02, 1.6, 1.4, 0.99, 1.2, -0.0, 2.53, 1.9, 0.0, 0.0, -1.34, -2.24, -2.68, -1.72, -2.04, -4.1, -6.31, -8.37, -10.52, -11.7, -10.79, -8.4, -3.6, 0.0, 1.19, 1.66, 2.11, 1.7, 1.41, 0.0, -0.0, 2.4, 2.98, 2.6, -4.4, -4.47, -5.77, -6.66, -9.48, -9.48, -9.48, -9.3, -9.01, -9.01, -9.37, -9.08, -9.08, -8.78, -8.78, -8.5, -8.82, -8.82, -8.53, -8.53, -8.56, -8.56, -8.54, -8.54, -8.85, -8.85, -9.17, -9.17, -9.17, -8.85, -8.49, -8.82, -8.44, -7.73, -8.09, -7.36, -7.36, -6.97, -6.2, -6.2, -5.63, -6.0, -6.0, -5.76, -5.52, -5.29, -4.56, -4.5, -4.0, -3.39, -6.4, -6.5, -5.7, -4.83, -4.0, -3.8, -2.54, 0.0, 0.0, 0.0, 0.0, 5.36, 4.92, 4.47, 4.47, 2.84, 1.4, 1.9, 2.21, -0.0, -0.0, -0.0, -0.0, 0.0, -1.34, -2.68, -4.92, -4.74, -2.95, -1.2, -3.61, -5.89, -8.02, -8.83, -7.24, -3.11, 0.0, 1.23, 1.55, 0.82, 0.95, 0.95, 1.03, 0.0, 0.0, -0.0, 2.6, 2.26, -2.8, -5.36, -5.36, -5.77, -9.48, -9.48, -9.3, -9.3, -9.01, -9.01, -9.01, -8.73, -9.08, -9.08, -8.78, -8.78, -8.5, -8.82, -8.53, -8.53, -8.24, -8.24, -8.24, -8.24, -8.54, -8.54, -9.17, -9.17, -8.85, -8.85, -8.82, -8.82, -8.49, -8.49, -7.46, -7.46, -6.76, -7.09, -6.36, -5.86, -6.2, -5.63, -6.0, -5.76, -6.15, -5.29, -5.06, -5.21, -5.46, -5.77, -6.5, -6.01, -5.31, -5.31, -5.1, -3.8, -1.95, -2.4, 0.0, 0.0, 0.0, 0.0, 0.0, 3.48, 4.92, 3.16, -0.0, -0.0, -0.0, -0.0, -0.0, -0.0, -0.0, 0.0, -1.34, -3.13, -5.2, -5.6, -4.11, -1.75, -2.82, -4.8, -5.63, -5.59, -1.98, 1.08, 1.55, 1.96, 1.84, 0.94, 0.89, 0.0, 0.0, 0.0, 0.0, -6.26, -0.0, -0.0, -0.0, -6.4, -6.71, -6.71, -9.3, -9.3, -9.3, -9.3, -9.01, -9.01, -9.01, -8.73, -8.73, -8.45, -8.45, -8.78, -8.5, -8.82, -8.53, -8.24, -7.95, -8.24, -8.24, -8.24, -8.54, -8.54, -8.85, -8.85, -8.85, -8.49, -8.52, -8.52, -8.49, -8.49, -8.19, -7.46, -7.18, -6.5, -6.5, -6.36, -5.86, -5.62, -5.41, -5.41, -5.76, -5.9, -5.9, -5.9, -6.41, -6.21, -5.45, -4.46, -4.75, -4.47, -3.91, -4.83, -3.6, -1.95, -2.4, 0.0, 0.0, 0.0, 0.0, 0.0, 5.36, 4.92, -0.0, -0.0, -0.0, -0.0, -0.0, -0.0, 0.0, 0.0, -1.34, -3.58, -5.2, -5.2, -5.81, -5.36, -5.72, -7.59, -6.7, -3.6, 0.0, 1.8, 2.06, 2.23, 2.23, 1.04, 0.0, 0.0, 0.0, 0.0, 0.0, -3.2, -7.15, -3.6, -7.6, -8.49, -8.49, -8.49, -9.3, -9.3, -9.3, -9.3, -9.01, -9.01, -9.01, -8.73, -8.73, -8.45, -8.45, -8.78, -8.5, -8.5, -8.53, -8.24, -8.24, -7.95, -8.24, -8.54, -8.54, -8.24, -8.54, -8.54, -8.54, -8.52, -8.52, -8.52, -8.49, -8.19, -8.19, -7.51, -7.18, -6.9, -6.5, -6.5, -5.8, -5.8, -5.62, -5.95, -5.18, -5.52, -5.9, -5.9, -6.15, -5.75, -4.99, -4.44, -4.71, -5.03, -3.68, -3.68, -3.4, -3.4, -3.4, -2.4, 0.0, 0.0, 0.0, 0.0, 0.0, 0.0, -0.0, -0.0, -0.0, -0.0, -0.0, 0.0, 0.0, 0.0, -1.34, -3.47, -5.09, -6.0, -6.44, -7.58, -6.87, -8.8, -9.26, -7.6, 7.27, 7.19, 4.66, 2.72, 1.38, 1.18, 0.0, 0.0, 0.0, 0.0, 0.0, -1.73, -7.15, -8.0, -8.94, -8.94, -8.94, -8.94, -9.3, -9.3, -9.3, -8.93, -8.65, -9.01, -8.65, -8.38, -8.73, -8.45, -8.45, -8.78, -8.5, -8.5, -8.82, -8.24, -8.24, -7.95, -7.95, -8.54, -8.54, -8.24, -8.24, -8.24, -8.54, -8.52, -8.52, -8.85, -8.53, -8.19, -8.19, -7.88, -7.51, -7.22, -6.9, -6.5, -6.24, -5.8, -5.56, -5.39, -5.39, -5.7, -5.52, -5.52, -5.52, -5.9, -5.06, -4.56, -5.2, -4.71, -5.03, -3.91, -4.29, -4.29, -3.4, -2.4, -2.26, -2.12, 0.0, 0.0, 0.0, 0.0, 0.0, -0.0, -0.0, -0.0, -0.0, 0.0, 0.0, 0.0, -1.79, -2.97, -4.22, -5.82, -5.06, -2.99, -1.41, -3.15, -5.0, 7.78, 12.56, 11.53, 5.4, 1.65, 0.0, 0.0, 0.0, 0.0, 0.0, -0.95, 0.0, -4.43, -7.15, -8.49, -8.49, -8.49, -8.49, -8.49, -9.3, -9.3, -8.93, -8.93, -8.65, -8.65, -8.65, -8.38, -8.73, -8.73, -8.45, -8.45, -8.5, -8.5, -8.5, -8.24, -8.24, -7.95, -7.95, -7.95, -8.24, -8.24, -8.24, -8.24, -8.24, -8.53, -8.21, -8.21, -8.53, -8.53, -7.88, -7.88, -7.88, -7.22, -7.22, -6.93, -6.63, -6.24, -5.98, -5.85, -5.85, -5.7, -5.7, -5.7, -5.52, -5.9, -5.64, -5.21, -4.74, -4.74, -4.94, -4.46, -4.75, -4.29, -4.29, -3.97, -3.97, -2.26, -2.12, -2.8, 0.0, 0.0, 0.0, -0.0, -0.0, -0.0, -0.0, 0.0, 0.0, 0.0, -1.34, -2.0, -2.21, -2.68, -0.87, 0.85, 1.98, 0.0, 1.39, 6.87, 11.1, 9.43, 3.44, 0.0, 0.0, 0.0, 0.0, 0.0, -1.22, 0.0, 0.0, -1.55, -5.94, -7.15, -7.6, -7.45, -7.45, -7.45, -8.93, -8.93, -8.93, -8.93, -8.65, -8.65, -8.65, -8.38, -8.38, -8.73, -8.45, -8.45, -8.52, -8.5, -8.22, -7.93, -8.24, -8.24, -7.95, -8.24, -8.24, -8.24, -8.53, -8.24, -8.24, -8.53, -8.53, -8.21, -8.53, -8.22, -8.22, -7.88, -7.88, -7.58, -7.22, -7.22, -6.93, -6.93, -6.54, -6.27, -6.27, -5.85, -6.17, -5.46, -5.46, -5.78, -5.64, -5.76, -4.96, -5.36, -4.5, -4.68, -4.46, -4.75, -4.29, -3.2, -3.2, -3.97, -2.12, -3.0, -2.8, -2.6, 0.0, 0.0, -0.0, -0.0, -0.0, 0.0, 0.0, 0.0, 0.0, -2.24, -2.24, 0.0, 1.58, 2.0, 0.99, 1.03, 2.99, 6.01, 6.98, 5.19, 3.09, 0.0, 0.0, 0.0, -1.07, -0.98, -0.99, -0.88, -0.81, -0.96, -3.79, -6.07, -6.58, -6.36, -6.36, -6.36, -8.93, -8.93, -8.93, -8.93, -8.65, -8.65, -8.65, -8.38, -8.38, -8.73, -8.45, -8.19, -8.19, -8.22, -8.22, -8.22, -8.24, -8.24, -8.24, -8.24, -8.24, -8.53, -8.53, -8.24, -8.24, -8.53, -8.53, -8.53, -8.22, -8.22, -8.22, -8.22, -7.88, -7.58, -7.58, -7.22, -6.93, -6.93, -6.93, -6.27, -6.27, -6.27, -5.6, -5.6, -5.46, -5.46, -5.52, -5.38, -5.49, -5.49, -4.71, -5.1, -4.68, -4.22, -3.68, -3.68, -2.49, -3.0, -3.0, -3.47, -4.43, -2.6, -3.79, 0.0, 0.0, -0.0, -0.0, 2.53, -0.0, -0.0, 0.0, -0.0, -0.0, -0.0, 0.0, 0.0, 0.0, 0.98, 3.63, 4.58, 3.77, 3.34, 4.35, 4.82, 1.58, -1.38, -2.13, -1.52, 0.0, 0.0, -0.82, -1.7, -2.95, -5.6, -6.58, -6.79, -6.79, -6.79, -8.93, -8.93, -8.93, -8.93, -8.65, -8.65, -8.65, -8.38, -8.38, -8.73, -8.45, -8.45, -8.19, -8.22, -8.22, -8.22, -8.22, -8.24, -8.24, -8.24, -8.24, -8.53, -8.53, -8.53, -8.53, -8.53, -8.53, -8.22, -8.52, -8.22, -8.22, -8.22, -8.22, -7.58, -7.58, -7.58, -6.93, -6.93, -6.93, -6.27, -6.27, -6.58, -6.17, -5.6, -5.6, -5.46, -5.52, -5.52, -5.38, -5.13, -4.71, -4.71, -4.26, -4.68, -3.4, -3.2, -2.26, -2.49, -2.32, -2.8, -3.47, -4.11, -3.79, -4.92, 0.0, -0.0, -0.0, -0.0, -0.0, -0.0, -0.0, 0.0, -0.0, -0.0, -0.0, 0.0, 0.0, 1.0, 2.53, 2.53, 0.82, 1.95, 4.72, 5.48, 1.42, -3.01, -1.83, -1.41, -0.7, -0.72, -1.41, -2.6, -3.07, -5.2, -6.07, -6.58, -6.58, -6.58, -8.93, -8.93, -8.93, -8.93, -8.65, -8.65, -8.65, -8.65, -8.38, -8.73, -8.45, -8.45, -8.45, -8.5, -8.22, -8.22, -8.22, -7.93, -8.24, -8.24, -8.24, -8.53, -8.53, -8.53, -8.53, -8.53, -8.53, -8.22, -8.52, -8.52, -8.22, -8.22, -7.9, -7.58, -7.58, -7.28, -7.25, -6.93, -6.93, -6.27, -6.58, -6.58, -6.17, -5.9, -5.9, -5.21, -5.21, -5.52, -5.04, -5.13, -5.13, -4.71, -4.12, -3.4, -2.99, -2.99, -2.82, -3.2, -2.12, -1.98, -2.16, -3.22, -3.79, -3.79, -4.92, -4.47, -1.6, -0.99, -0.0, -0.0, -0.0, 0.0, 0.0, -0.0, -0.0, -0.0, 0.0, 0.0, 1.26, 0.0, 0.0, 0.88, 1.84, 2.23, 0.0, -6.71, -3.22, -2.53, -2.3, -1.47, -1.52, -3.33, -3.35, -4.8, -5.64, -5.81, -5.81, -5.81, -8.93, -8.93, -8.93, -8.93, -8.65, -8.65, -8.65, -8.65, -8.38, -8.73, -8.73, -8.45, -8.45, -8.78, -8.5, -8.5, -8.5, -8.22, -7.93, -8.24, -7.93, -8.22, -8.53, -8.53, -8.82, -8.53, -8.22, -8.52, -8.52, -8.52, -8.22, -7.9, -7.9, -7.9, -7.58, -7.59, -7.59, -7.25, -7.25, -6.95, -6.58, -6.58, -6.58, -5.9, -5.9, -5.63, -5.21, -5.52, -5.04, -5.13, -5.13, -4.71, -4.71, -4.26, -3.77, -3.77, -3.77, -2.82, -3.0, -3.0, -2.6, -2.99, -2.98, -4.8, -5.36, -4.92, -3.6, -2.21, -1.98, -1.74, -1.2, -0.0, 0.0, 0.0, -0.0, -0.0, -0.0, -0.0, 0.0, 0.0, 0.0, 0.0, 0.0, 0.0, -2.21, -5.8, -3.4, -3.2, -3.35, -3.16, -2.88, -3.77, -4.43, -4.77, -4.92, -5.36, -5.36, -5.36, -8.93, -8.93, -8.93, -8.93, -8.93, -8.65, -8.65, -8.65, -8.38, -8.73, -8.73, -8.45, -8.45, -8.78, -8.5, -8.5, -8.5, -8.5, -8.22, -8.22, -8.22, -8.22, -8.53, -8.82, -8.82, -8.82, -8.22, -8.52, -8.52, -8.52, -8.19, -7.9, -7.9, -7.9, -7.9, -7.59, -7.59, -7.59, -6.95, -6.95, -6.95, -6.58, -6.3, -6.3, -5.9, -5.63, -5.94, -5.52, -5.52, -5.38, -5.13, -4.96, -4.71, -4.26, -4.68, -4.42, -4.42, -3.55, -3.55, -3.72, -2.8, -2.6, -3.49, -4.11, -5.2, -5.81, -4.47, -3.58, -2.8, -1.4, -1.2, -1.2, -2.68, -1.9, 0.0, 0.0, -0.0, -0.0, -0.0, -1.34, 0.0, 0.0, 0.0, -3.2, -2.34, -3.47, 0.0, 0.0, -3.58, -3.9, -3.07, -3.55, -4.74, -4.92, -0.0, -3.16, -3.16, -3.16, -8.93, -8.93, -8.93, -8.93, -8.93, -8.65, -8.65, -8.65, -8.73, -8.73, -8.73, -8.45, -8.45, -8.78, -8.78, -8.5, -8.5, -8.5, -8.5, -8.22, -8.22, -8.22, -8.53, -8.82, -8.82, -8.5, -8.5, -8.52, -8.52, -8.52, -8.19, -8.19, -7.9, -7.9, -8.21, -7.88, -7.59, -7.59, -7.27, -6.95, -6.95, -6.95, -6.3, -6.3, -6.62, -5.94, -5.94, -5.98, -5.86, -5.86, -5.49, -5.49, -4.83, -5.24, -4.95, -4.95, -4.87, -4.87, -4.58, -3.72, -3.72, -3.47, -3.22, -3.76, -5.21, -5.94, -5.2, -4.29, -2.21, 0.0, 0.0, -0.0, -3.2, -2.68, -2.0, -1.79, -1.0, -1.74, -2.24, -1.79, -1.6, -1.2, -2.06, -3.01, -4.95, -3.36, 7.59, 5.95, 1.6, -3.58, -3.16, -3.97, -4.22, -0.0, 2.0, -0.0, -0.0, -0.0, -9.2, -9.2, -8.93, -8.93, -8.93, -8.65, -8.65, -8.65, -8.73, -8.73, -8.73, -8.45, -8.78, -8.78, -8.78, -8.5, -8.5, -8.5, -8.5, -8.22, -8.22, -8.22, -8.5, -8.5, -8.5, -8.5, -8.5, -8.78, -8.52, -8.19, -8.19, -8.19, -7.9, -7.9, -7.88, -7.88, -7.88, -7.59, -7.58, -7.58, -7.27, -7.27, -6.95, -6.95, -6.31, -6.31, -6.28, -5.98, -5.98, -6.24, -5.94, -5.94, -5.59, -5.69, -5.69, -5.37, -5.37, -5.37, -4.87, -4.58, -4.29, -3.72, -3.47, -3.91, -4.74, -5.36, -5.36, -4.65, -1.4, 0.0, 2.21, 2.68, 0.0, -3.13, -2.24, -2.24, -2.97, -4.57, -4.47, -3.58, -3.13, -2.97, -1.6, -2.71, -5.8, -10.0, 8.49, 3.79, 2.53, -0.0, -4.11, -2.99, 0.0, 0.0, 3.48, 3.48, 3.48, 3.48, -8.96, -8.96, -8.55, -8.93, -8.93, -8.93, -8.65, -8.65, -8.73, -8.73, -8.73, -8.73, -8.45, -8.78, -8.78, -8.78, -8.5, -8.5, -8.5, -8.22, -8.22, -8.22, -8.78, -8.78, -8.78, -8.78, -8.78, -8.78, -8.78, -8.19, -8.19, -8.19, -8.19, -7.9, -7.88, -7.88, -7.88, -7.88, -7.58, -7.58, -7.58, -7.27, -6.95, -6.95, -6.62, -6.31, -6.64, -6.28, -6.32, -6.64, -6.24, -6.32, -6.39, -6.01, -5.69, -6.11, -6.11, -5.37, -5.37, -5.06, -4.58, -4.58, -4.29, -3.72, -4.19, -4.74, -5.36, -5.36, -4.43, -1.8, 0.0, 2.24, 0.0, -2.8, -2.24, -1.79, -1.58, -4.92, -6.26, -5.81, -4.92, -4.15, -3.35, -3.8, -6.44, -9.83, -0.0, 3.72, 2.6, 3.6, 0.0, 0.0, 3.2, 0.0, 5.36, 5.81, 5.81, 5.81, -8.96, -8.96, -8.82, -8.55, -8.93, -8.93, -8.65, -8.65, -9.01, -8.73, -8.73, -8.73, -8.45, -8.78, -8.78, -8.78, -8.78, -8.5, -8.5, -8.22, -8.22, -8.22, -8.78, -8.78, -8.78, -8.78, -8.78, -8.78, -8.78, -8.19, -8.19, -8.19, -8.19, -8.49, -7.88, -7.88, -7.88, -7.88, -7.91, -7.58, -7.58, -7.58, -6.95, -6.95, -6.95, -6.95, -6.64, -6.98, -6.32, -6.64, -6.68, -6.32, -6.39, -6.39, -6.45, -6.11, -6.11, -6.55, -6.18, -5.84, -5.06, -5.06, -5.06, -4.58, -4.58, -5.06, -5.59, -5.06, -5.36, -3.16, -1.9, 0.0, -1.79, -2.21, -1.2, -1.79, -1.26, -3.47, -5.36, -6.26, -6.26, -5.75, -4.8, -4.19, -6.64, -8.94, -0.0, 4.92, 2.97, 2.97, 3.6, 4.02, 3.79, 5.06, 6.26, 4.02, 4.02, 4.02, -8.96, -8.96, -8.82, -8.55, -8.93, -9.1, -8.84, -8.84, -9.01, -8.73, -8.73, -8.73, -8.73, -8.45, -8.45, -8.78, -8.78, -8.78, -8.5, -8.5, -8.22, -8.52, -8.78, -8.78, -8.78, -8.78, -8.78, -8.78, -8.78, -8.45, -8.49, -8.49, -8.49, -8.15, -7.88, -7.88, -7.88, -7.88, -7.91, -7.58, -7.58, -7.9, -7.9, -6.95, -6.95, -7.28, -6.64, -6.98, -6.65, -6.32, -6.68, -7.06, -6.73, -6.39, -6.79, -6.44, -6.11, -6.55, -6.55, -6.18, -5.82, -5.49, -5.49, -5.49, -4.58, -5.06, -5.59, -5.59, -5.06, -4.46, -3.82, -2.68, -2.24, -1.9, -3.2, -3.13, -2.68, -2.4, -4.38, -5.81, -5.81, -5.81, -5.09, -5.75, -8.0, -9.39, -8.49, 0.0, 5.81, 3.58, 1.9, 1.4, 0.0, 0.0, 4.02, 0.0, 0.0, 0.0, -8.96, -8.96, -8.96, -8.72, -8.93, -9.1, -8.84, -8.65, -9.01, -9.01, -8.73, -8.73, -8.73, -8.73, -8.45, -8.45, -8.78, -8.78, -8.78, -8.78, -8.52, -8.52, -8.78, -8.78, -8.78, -8.78, -8.78, -9.08, -9.08, -8.73, -8.49, -8.49, -8.49, -8.49, -8.15, -7.88, -7.88, -7.88, -8.19, -7.91, -7.9, -7.9, -7.9, -7.56, -7.28, -7.28, -6.95, -6.98, -6.98, -7.33, -6.68, -7.06, -7.06, -7.15, -6.79, -6.79, -6.44, -6.82, -6.55, -6.18, -6.18, -6.18, -5.82, -5.49, -5.49, -5.49, -5.06, -5.93, -5.93, -5.59, -5.81, -3.13, -3.13, 0.0, 0.0, -4.47, -3.58, -2.68, -3.58, -4.47, -4.92, -4.92, -4.85, -6.23, -8.4, -11.18, -11.18, -4.2, 0.0, 5.69, 3.48, -0.0, -0.0, 0.0, 0.0, 0.0, 0.0, 0.0, -8.96, -8.96, -8.96, -8.72, -8.93, -8.93, -8.93, -8.65, -8.65, -9.01, -8.73, -8.73, -8.73, -8.73, -8.73, -8.45, -8.78, -8.78, -8.78, -8.78, -8.52, -8.52, -8.78, -8.78, -8.78, -8.78, -9.08, -9.08, -9.08, -8.73, -8.49, -8.49, -8.49, -8.49, -8.49, -7.88, -7.88, -8.19, -8.19, -8.19, -7.91, -7.9, -7.9, -7.56, -7.56, -7.28, -7.28, -7.27, -6.98, -7.33, -6.98, -7.06, -7.06, -7.44, -6.79, -6.79, -6.79, -6.82, -6.82, -6.82, -6.44, -6.44, -6.6, -6.6, -6.18, -5.84, -5.84, -6.32, -6.7, -5.93, -5.75, -3.39, -3.13, 0.0, 2.24, 0.0, -2.84, -2.68, -3.58, -4.47, -4.47, -4.92, -5.29, -6.23, -8.0, -10.6, -11.03, -7.59, -3.11, 0.0, 0.0, -0.0, -0.0, -0.0, -0.0, -0.0, -0.0, -0.0, -8.96, -8.96, -8.96, -8.82, -8.55, -8.93, -8.93, -8.65, -8.65, -8.65, -8.65, -8.73, -8.73, -8.73, -8.73, -8.73, -8.78, -8.78, -8.78, -8.78, -8.78, -8.78, -8.78, -8.78, -8.78, -8.78, -9.08, -9.08, -9.08, -8.73, -8.49, -8.49, -8.49, -8.49, -8.49, -8.21, -8.19, -8.19, -8.19, -8.19, -7.91, -7.9, -7.9, -7.9, -7.87, -7.61, -7.61, -7.27, -6.98, -7.33, -7.32, -7.06, -7.06, -7.44, -7.07, -7.07, -6.79, -7.2, -6.82, -6.82, -6.82, -6.8, -6.8, -6.6, -6.6, -6.18, -6.18, -6.55, -6.7, -6.32, -6.0, -4.98, -4.24, 0.0, 0.0, -0.0, -2.21, -3.13, -3.58, -4.47, -4.82, -5.29, -5.73, -6.23, -7.6, -8.55, -7.59, -4.6, -3.11, 0.0, 0.0, 0.0, 0.0, 0.0, 0.0, 0.0, 0.0, 0.0, -8.96, -8.96, -8.96, -8.82, -8.55, -8.93, -8.93, -8.65, -8.65, -8.65, -8.65, -8.73, -8.73, -8.73, -8.73, -8.73, -8.78, -8.78, -8.78, -8.78, -8.78, -8.78, -8.78, -8.78, -8.78, -8.78, -9.08, -9.08, -9.08, -8.73, -8.49, -8.49, -8.49, -8.49, -8.49, -8.21, -8.19, -8.19, -8.19, -8.19, -7.91, -7.9, -7.9, -7.9, -7.87, -7.61, -7.61, -7.27, -6.98, -7.33, -7.32, -7.06, -7.06, -7.44, -7.07, -7.07, -6.79, -7.2, -6.82, -6.82, -6.82, -6.8, -6.8, -6.6, -6.6, -6.18, -6.18, -6.55, -6.7, -6.32, -6.0, -4.98, -4.24, 0.0, 0.0, -0.0, -2.21, -3.13, -3.58, -4.47, -4.82, -5.29, -5.51, -6.79, -7.47, -8.0, -7.81, -6.95, -3.11, 0.0, -3.11, -4.2, -6.01, 0.0, 0.0, 0.0, 0.0, 0.0]}]